N8MS Weather Reports


Display with metric or nautical units.
time (UTC)temp
F
wind
direction
speed
MPH
gust
MPH
rain 1hr
in
rain 24hr
in
rain mn
in
humidity
%
barometer
mb
20260905154531 78 12 3.0 6.0 0.00 0.27 0.06 88 1015.1
20260905154444 78 355 2.0 6.0 0.00 0.27 0.06 88 1015.2
20260905154356 78 17 3.0 6.0 0.00 0.27 0.06 88 1015.2
20260905154247 78 17 3.0 6.0 0.00 0.27 0.06 89 1015.2
20260905154137 78 75 3.0 6.0 0.00 0.27 0.06 89 1015.2
20260905154028 78 68 3.0 5.0 0.00 0.27 0.06 90 1015.2
20260905153940 78 83 3.0 4.0 0.00 0.27 0.06 89 1015.2
20260905153853 78 28 2.0 4.0 0.00 0.27 0.06 89 1015.2
20260905153809 78 118 1.0 3.0 0.00 0.27 0.06 89 1015.3
20260905153700 78 118 0.0 4.0 0.00 0.27 0.06 89 1015.2
20260905153531 78 118 0.0 6.0 0.00 0.27 0.06 89 1015.3
20260905153424 78 118 1.0 6.0 0.00 0.27 0.06 89 1015.3
20260905153336 78 118 2.0 8.0 0.00 0.27 0.06 89 1015.3
20260905153246 78 118 2.0 8.0 0.00 0.27 0.06 89 1015.3
20260905153147 78 118 1.0 8.0 0.00 0.27 0.06 89 1015.2
20260905153039 78 118 0.0 8.0 0.00 0.27 0.06 89 1015.2
20260905152952 78 118 2.0 8.0 0.00 0.27 0.06 89 1015.2
20260905152822 78 118 4.0 8.0 0.00 0.27 0.06 90 1015.2
20260905152719 78 98 5.0 8.0 0.00 0.27 0.06 90 1015.1
20260905152630 78 96 5.0 8.0 0.00 0.27 0.06 90 1015.1
20260905152522 78 116 2.0 8.0 0.00 0.27 0.06 91 1015.1
20260905152434 78 5 1.0 8.0 0.00 0.27 0.06 91 1015.1
20260905152326 77 67 1.0 8.0 0.00 0.27 0.06 91 1015.1
20260905152238 77 67 3.0 8.0 0.00 0.27 0.06 91 1015.1
20260905152150 77 73 3.0 8.0 0.00 0.27 0.06 91 1015.2
20260905152022 77 124 2.0 6.0 0.00 0.27 0.06 92 1015.1
20260905151919 77 146 2.0 6.0 0.00 0.27 0.06 91 1015.1
20260905151831 77 146 3.0 6.0 0.00 0.27 0.06 91 1015.1
20260905151742 77 146 3.0 6.0 0.00 0.27 0.06 92 1015.0
20260905151704 77 146 3.0 6.0 0.00 0.27 0.06 91 1015.0
20260905151556 77 92 2.0 6.0 0.00 0.27 0.06 91 1015.0
20260905151447 77 92 3.0 6.0 0.00 0.27 0.06 92 1014.9
20260905151359 77 92 4.0 6.0 0.00 0.27 0.06 91 1015.0
20260905151230 77 89 4.0 6.0 0.00 0.27 0.06 91 1014.9
20260905151123 77 96 4.0 6.0 0.00 0.27 0.06 92 1015.0
20260905151036 77 87 3.0 6.0 0.00 0.27 0.06 92 1015.0
20260905150932 77 70 2.0 4.0 0.00 0.27 0.06 93 1015.0
20260905150845 76 87 2.0 4.0 0.00 0.27 0.06 93 1015.1
20260905150757 76 87 3.0 4.0 0.00 0.27 0.06 93 1015.1
20260905150710 76 97 3.0 4.0 0.00 0.27 0.06 93 1015.0
20260905150600 76 106 2.0 4.0 0.00 0.27 0.06 94 1015.0
20260905150432 76 121 1.0 4.0 0.00 0.27 0.06 94 1015.0
20260905150323 76 121 1.0 4.0 0.00 0.27 0.06 93 1015.0
20260905150234 76 121 2.0 8.0 0.00 0.27 0.06 93 1015.0
20260905150157 75 121 2.0 8.0 0.00 0.27 0.06 93 1015.0
20260905150028 75 121 1.0 8.0 0.00 0.27 0.06 93 1015.0
20260905145925 75 116 0.0 8.0 0.00 0.27 0.06 93 1015.0
20260905145835 75 128 0.0 8.0 0.00 0.27 0.06 93 1015.0
20260905145747 75 113 0.0 8.0 0.00 0.27 0.06 93 1015.0
20260905145637 75 113 0.0 8.0 0.00 0.27 0.06 92 1015.0
20260905145529 75 153 1.0 8.0 0.00 0.27 0.06 92 1015.0
20260905145441 75 153 3.0 8.0 0.00 0.27 0.06 93 1015.0
20260905145332 75 152 4.0 8.0 0.00 0.27 0.06 93 1015.0
20260905145225 75 109 4.0 4.0 0.00 0.27 0.06 93 1015.1
20260905145137 75 109 3.0 4.0 0.00 0.27 0.06 93 1015.0
20260905145033 75 109 2.0 4.0 0.00 0.27 0.06 93 1015.0
20260905144925 75 106 1.0 3.0 0.00 0.27 0.06 94 1015.0
20260905144838 75 139 2.0 5.0 0.00 0.27 0.06 94 1015.0
20260905144730 75 139 2.0 5.0 0.00 0.27 0.06 94 1014.9
20260905144652 75 139 2.0 5.0 0.00 0.27 0.06 94 1014.9
20260905144523 75 139 1.0 5.0 0.00 0.27 0.06 94 1014.9
20260905144435 75 139 1.0 5.0 0.00 0.27 0.06 94 1014.9
20260905144326 75 139 1.0 5.0 0.00 0.27 0.06 94 1014.9
20260905144238 75 139 1.0 5.0 0.00 0.27 0.06 94 1014.9
20260905144153 75 139 3.0 5.0 0.00 0.27 0.06 94 1014.9
20260905144044 75 139 4.0 6.0 0.00 0.27 0.06 94 1014.9
20260905143936 75 119 3.0 6.0 0.00 0.27 0.06 94 1015.0
20260905143829 75 123 3.0 5.0 0.00 0.27 0.06 94 1015.0
20260905143722 75 106 2.0 4.0 0.00 0.27 0.06 94 1015.0
20260905143634 75 106 2.0 4.0 0.00 0.27 0.06 94 1015.0
20260905143526 75 106 3.0 4.0 0.00 0.27 0.06 94 1015.0
20260905143438 75 106 3.0 4.0 0.00 0.27 0.06 94 1015.1
20260905143330 75 106 2.0 4.0 0.00 0.27 0.06 94 1015.1
20260905143223 74 106 2.0 4.0 0.00 0.27 0.06 94 1015.1
20260905143145 74 106 2.0 7.0 0.00 0.27 0.06 94 1015.1
20260905143037 74 106 3.0 7.0 0.00 0.27 0.06 94 1015.0
20260905142946 74 106 2.0 7.0 0.00 0.27 0.06 95 1014.9
20260905142858 74 146 2.0 7.0 0.00 0.27 0.06 95 1015.0
20260905142729 74 146 2.0 7.0 0.00 0.27 0.06 95 1015.0
20260905142621 74 146 3.0 7.0 0.00 0.27 0.06 95 1015.0
20260905142534 74 146 3.0 7.0 0.00 0.27 0.06 95 1015.0
20260905142425 74 138 4.0 7.0 0.00 0.27 0.06 95 1015.0
20260905142336 74 138 4.0 7.0 0.00 0.27 0.06 95 1015.1
20260905142248 74 138 3.0 7.0 0.00 0.27 0.06 95 1015.1
20260905142143 74 125 4.0 7.0 0.00 0.27 0.06 95 1015.1
20260905142034 74 125 4.0 7.0 0.00 0.27 0.06 95 1015.1
20260905141927 74 125 4.0 7.0 0.00 0.27 0.06 95 1015.1
20260905141839 74 119 4.0 7.0 0.00 0.27 0.06 95 1015.1
20260905141740 74 100 3.0 7.0 0.00 0.27 0.06 95 1015.1
20260905141642 74 100 4.0 7.0 0.00 0.27 0.06 95 1015.0
20260905141534 74 100 4.0 7.0 0.00 0.27 0.06 96 1015.0
20260905141426 74 130 4.0 7.0 0.00 0.27 0.06 96 1015.0
20260905141339 74 109 4.0 7.0 0.00 0.27 0.06 96 1015.1
20260905141235 74 133 4.0 7.0 0.00 0.27 0.06 95 1015.0
20260905141127 74 124 1.0 6.0 0.00 0.27 0.06 97 1015.1
20260905141020 74 83 0.0 3.0 0.00 0.27 0.06 97 1015.0
20260905140932 74 83 0.0 3.0 0.00 0.27 0.06 97 1015.1
20260905140824 74 83 0.0 3.0 0.00 0.27 0.06 97 1015.1
20260905140737 74 83 0.0 3.0 0.00 0.27 0.06 97 1015.1
20260905140648 74 83 0.0 3.0 0.00 0.27 0.06 97 1015.1
20260905140520 73 83 0.0 4.0 0.00 0.27 0.06 96 1015.1
20260905140431 73 83 0.0 4.0 0.00 0.27 0.06 96 1015.1
20260905140348 73 83 1.0 4.0 0.00 0.27 0.06 96 1015.0
20260905140237 73 83 2.0 4.0 0.00 0.27 0.06 96 1015.0
20260905140159 73 83 2.0 4.0 0.00 0.27 0.06 96 1015.0
20260905140031 73 83 3.0 4.0 0.00 0.27 0.06 96 1015.1
20260905135923 73 83 2.0 4.0 0.00 0.27 0.06 96 1015.1
20260905135836 73 83 2.0 4.0 0.00 0.27 0.06 96 1015.1
20260905135729 73 83 2.0 4.0 0.00 0.27 0.06 96 1015.0
20260905135620 73 83 2.0 6.0 0.00 0.27 0.06 97 1015.1
20260905135531 73 53 1.0 7.0 0.00 0.27 0.06 97 1015.0
20260905135447 73 74 1.0 7.0 0.00 0.27 0.06 97 1015.0
20260905135359 73 74 2.0 7.0 0.00 0.27 0.06 97 1015.0
20260905135251 73 68 3.0 7.0 0.00 0.27 0.06 96 1015.0
20260905135122 73 104 3.0 7.0 0.00 0.27 0.06 96 1015.0
20260905135034 73 92 3.0 7.0 0.00 0.27 0.06 96 1015.0
20260905134946 73 67 4.0 7.0 0.00 0.27 0.06 96 1015.0
20260905134838 73 97 4.0 7.0 0.00 0.27 0.06 96 1014.9
20260905134750 73 92 4.0 7.0 0.00 0.27 0.06 96 1014.9
20260905134712 74 101 3.0 6.0 0.00 0.27 0.06 97 1014.9
20260905134544 74 65 3.0 5.0 0.00 0.27 0.06 97 1014.9
20260905134435 74 89 3.0 5.0 0.00 0.27 0.06 97 1014.9
20260905134347 74 87 3.0 5.0 0.00 0.27 0.06 97 1014.9
20260905134242 74 80 3.0 5.0 0.00 0.27 0.06 97 1014.9
20260905134133 74 76 3.0 5.0 0.00 0.27 0.06 97 1015.0
20260905134045 74 71 3.0 5.0 0.00 0.27 0.06 97 1014.9
20260905133957 74 86 4.0 5.0 0.00 0.27 0.06 97 1014.9
20260905133848 74 83 3.0 5.0 0.00 0.27 0.06 97 1014.9
20260905133800 74 67 3.0 5.0 0.00 0.27 0.06 97 1015.0
20260905133632 74 67 3.0 6.0 0.00 0.27 0.06 97 1015.0
20260905133545 74 84 3.0 6.0 0.00 0.27 0.06 97 1014.9
20260905133458 74 71 3.0 6.0 0.00 0.27 0.06 97 1014.9
20260905133411 73 69 3.0 5.0 0.00 0.27 0.06 97 1014.9
20260905133301 73 82 3.0 4.0 0.00 0.27 0.06 97 1014.9
20260905133140 74 105 3.0 4.0 0.00 0.27 0.06 97 1015.0
20260905133035 73 61 2.0 4.0 0.00 0.27 0.06 97 1015.0
20260905132927 73 65 2.0 4.0 0.00 0.27 0.06 97 1015.0
20260905132838 73 97 2.0 4.0 0.00 0.27 0.06 97 1014.9
20260905132730 73 97 3.0 4.0 0.00 0.27 0.06 97 1015.0
20260905132623 73 91 3.0 4.0 0.00 0.27 0.06 97 1014.9
20260905132535 73 74 2.0 4.0 0.00 0.27 0.06 98 1015.0
20260905132447 73 60 2.0 4.0 0.00 0.27 0.06 98 1014.9
20260905132338 73 93 2.0 5.0 0.00 0.27 0.06 98 1014.9
20260905132230 73 131 2.0 5.0 0.00 0.27 0.06 98 1015.0
20260905132126 73 131 2.0 5.0 0.00 0.27 0.06 98 1014.9
20260905132038 73 131 2.0 5.0 0.00 0.27 0.06 98 1014.9
20260905131930 73 131 3.0 5.0 0.00 0.27 0.06 98 1014.8
20260905131821 73 131 3.0 5.0 0.00 0.27 0.06 98 1014.8
20260905131734 73 131 3.0 5.0 0.00 0.27 0.06 98 1014.7
20260905131657 73 131 3.0 5.0 0.00 0.27 0.06 98 1014.7
20260905131528 73 131 3.0 5.0 0.00 0.27 0.06 98 1014.7
20260905131439 73 131 2.0 5.0 0.00 0.27 0.06 98 1014.7
20260905131332 73 131 2.0 5.0 0.00 0.27 0.06 98 1014.7
20260905131229 73 131 3.0 5.0 0.00 0.27 0.06 98 1014.8
20260905131141 73 131 2.0 5.0 0.00 0.27 0.06 99 1014.8
20260905131033 73 108 2.0 4.0 0.00 0.27 0.06 99 1014.8
20260905130924 73 108 2.0 4.0 0.00 0.27 0.06 99 1014.8
20260905130835 73 108 2.0 4.0 0.00 0.27 0.06 98 1014.8
20260905130727 73 91 3.0 4.0 0.00 0.27 0.06 98 1014.8
20260905130619 73 113 3.0 4.0 0.00 0.27 0.06 98 1014.7
20260905130532 73 113 3.0 4.0 0.00 0.27 0.06 98 1014.7
20260905130426 73 99 3.0 3.0 0.00 0.27 0.06 99 1014.7
20260905130340 73 119 2.0 3.0 0.00 0.27 0.06 99 1014.7
20260905130230 73 122 2.0 4.0 0.00 0.27 0.06 99 1014.7
20260905130151 73 122 2.0 4.0 0.00 0.27 0.06 99 1014.7
20260905130022 73 122 1.0 4.0 0.00 0.27 0.06 99 1014.6
20260905125934 72 122 0.0 4.0 0.00 0.27 0.06 98 1014.8
20260905125826 72 122 0.0 4.0 0.00 0.27 0.06 98 1014.7
20260905125739 72 122 0.0 4.0 0.00 0.27 0.06 98 1014.8
20260905125631 72 122 0.0 4.0 0.00 0.27 0.06 98 1014.7
20260905125527 72 122 2.0 4.0 0.00 0.27 0.06 98 1014.8
20260905125419 72 122 2.0 4.0 0.00 0.27 0.06 98 1014.7
20260905125332 72 100 2.0 4.0 0.00 0.27 0.06 98 1014.7
20260905125224 72 100 1.0 4.0 0.00 0.27 0.06 98 1014.8
20260905125138 72 100 0.0 4.0 0.00 0.27 0.06 98 1014.8
20260905125030 72 68 0.0 4.0 0.00 0.27 0.06 98 1014.8
20260905124921 72 57 0.0 4.0 0.00 0.27 0.06 98 1014.7
20260905124834 72 70 0.0 4.0 0.00 0.27 0.06 98 1014.7
20260905124727 72 48 0.0 5.0 0.00 0.27 0.06 98 1014.8
20260905124649 72 48 1.0 5.0 0.00 0.27 0.06 98 1014.8
20260905124520 72 49 2.0 5.0 0.00 0.27 0.06 98 1014.8
20260905124433 72 57 2.0 5.0 0.00 0.27 0.06 98 1014.9
20260905124346 72 51 1.0 5.0 0.00 0.27 0.06 98 1014.9
20260905124257 72 55 2.0 5.0 0.00 0.27 0.06 98 1014.8
20260905124128 72 57 3.0 5.0 0.00 0.27 0.06 98 1014.9
20260905124039 72 81 2.0 5.0 0.00 0.27 0.06 98 1014.9
20260905123951 72 71 1.0 5.0 0.00 0.27 0.06 98 1014.9
20260905123843 72 71 2.0 5.0 0.00 0.27 0.06 98 1014.9
20260905123756 72 71 3.0 5.0 0.00 0.27 0.06 98 1014.9
20260905123651 72 61 2.0 4.0 0.00 0.27 0.06 98 1014.9
20260905123603 72 88 2.0 7.0 0.00 0.27 0.06 98 1014.8
20260905123516 72 62 2.0 7.0 0.00 0.27 0.06 98 1014.9
20260905123428 72 76 2.0 7.0 0.00 0.27 0.06 98 1014.8
20260905123319 72 92 3.0 7.0 0.00 0.27 0.06 98 1014.8
20260905123158 72 96 2.0 7.0 0.00 0.27 0.06 98 1014.7
20260905123030 72 102 2.0 7.0 0.00 0.27 0.06 98 1014.7
20260905122923 72 105 4.0 7.0 0.00 0.27 0.06 98 1014.7
20260905122836 72 97 4.0 7.0 0.00 0.27 0.06 98 1014.8
20260905122729 72 101 3.0 6.0 0.00 0.27 0.06 98 1014.7
20260905122624 72 98 4.0 6.0 0.00 0.27 0.06 98 1014.7
20260905122536 72 91 3.0 6.0 0.00 0.27 0.06 98 1014.6
20260905122429 72 94 3.0 6.0 0.00 0.27 0.06 98 1014.6
20260905122320 72 114 4.0 6.0 0.00 0.27 0.06 98 1014.6
20260905122232 72 100 4.0 6.0 0.00 0.27 0.06 98 1014.5
20260905122125 72 95 3.0 6.0 0.00 0.27 0.06 98 1014.5
20260905122036 72 123 3.0 4.0 0.00 0.27 0.06 98 1014.5
20260905121929 72 122 2.0 4.0 0.00 0.27 0.06 98 1014.6
20260905121845 72 116 2.0 4.0 0.00 0.27 0.06 98 1014.4
20260905121757 72 96 3.0 4.0 0.00 0.27 0.06 98 1014.4
20260905121659 72 96 2.0 4.0 0.00 0.27 0.06 98 1014.4
20260905121530 72 88 1.0 4.0 0.00 0.27 0.06 98 1014.4
20260905121422 72 88 1.0 4.0 0.00 0.27 0.06 98 1014.3
20260905121335 72 88 2.0 4.0 0.00 0.27 0.06 98 1014.3
20260905121227 72 101 2.0 4.0 0.00 0.27 0.06 98 1014.3
20260905121139 72 80 3.0 4.0 0.00 0.27 0.06 98 1014.4
20260905121031 72 109 3.0 4.0 0.00 0.27 0.06 98 1014.4
20260905120928 72 90 3.0 4.0 0.00 0.27 0.06 98 1014.2
20260905120840 72 119 3.0 4.0 0.00 0.27 0.06 98 1014.3
20260905120753 72 88 1.0 4.0 0.00 0.27 0.06 98 1014.3
20260905120624 72 87 0.0 0.0 0.00 0.27 0.06 98 1014.3
20260905120535 72 87 0.0 0.0 0.00 0.27 0.06 98 1014.3
20260905120448 72 87 0.0 0.0 0.00 0.27 0.06 98 1014.3
20260905120400 72 87 0.0 0.0 0.00 0.27 0.06 98 1014.3
20260905120231 72 87 0.0 0.0 0.00 0.27 0.06 98 1014.3
20260905120153 72 87 0.0 0.0 0.00 0.27 0.06 98 1014.3
20260905120044 72 87 0.0 0.0 0.00 0.27 0.06 98 1014.2
20260905115938 72 87 0.0 0.0 0.00 0.27 0.06 98 1014.2
20260905115849 72 87 0.0 0.0 0.00 0.27 0.06 98 1014.2
20260905115741 72 87 0.0 0.0 0.00 0.27 0.06 98 1014.2
20260905115653 72 61 0.0 0.0 0.00 0.27 0.06 98 1014.2
20260905115606 72 86 0.0 1.0 0.00 0.27 0.06 98 1014.1
20260905115456 72 72 0.0 3.0 0.00 0.27 0.06 98 1014.1
20260905115328 72 72 0.0 3.0 0.00 0.27 0.06 98 1014.1
20260905115220 72 72 0.0 3.0 0.00 0.27 0.06 98 1014.0
20260905115133 72 72 0.0 3.0 0.00 0.27 0.06 98 1014.0
20260905115045 72 72 0.0 4.0 0.00 0.27 0.06 98 1014.0
20260905114935 72 95 0.0 4.0 0.00 0.27 0.06 98 1013.9
20260905114830 72 95 1.0 4.0 0.00 0.27 0.06 98 1013.9
20260905114741 72 63 2.0 4.0 0.00 0.27 0.06 98 1013.9
20260905114641 72 63 1.0 4.0 0.00 0.27 0.06 98 1013.8
20260905114533 72 63 0.0 4.0 0.00 0.27 0.06 98 1013.9
20260905114425 72 86 1.0 4.0 0.00 0.27 0.06 98 1013.8
20260905114337 72 86 2.0 4.0 0.00 0.27 0.06 98 1013.9
20260905114229 72 84 3.0 4.0 0.00 0.27 0.06 98 1013.9
20260905114120 72 89 1.0 4.0 0.00 0.27 0.06 98 1013.8
20260905114032 72 90 0.0 4.0 0.00 0.27 0.06 98 1013.9
20260905113928 72 75 0.0 0.0 0.00 0.27 0.06 98 1013.9
20260905113820 72 75 0.0 0.0 0.00 0.27 0.06 98 1013.9
20260905113732 72 76 0.0 0.0 0.00 0.27 0.06 98 1013.9
20260905113624 72 76 0.0 0.0 0.00 0.27 0.06 98 1013.9
20260905113536 72 76 0.0 0.0 0.00 0.27 0.06 98 1013.9
20260905113428 72 76 0.0 0.0 0.00 0.27 0.06 98 1013.9
20260905113341 72 76 0.0 0.0 0.00 0.27 0.06 98 1013.9
20260905113230 72 63 0.0 0.0 0.00 0.27 0.06 98 1013.9
20260905113153 72 31 0.0 0.0 0.00 0.27 0.06 98 1013.9
20260905113029 72 31 0.0 0.0 0.00 0.27 0.06 98 1013.8
20260905112921 72 31 0.0 0.0 0.00 0.27 0.06 98 1013.8
20260905112832 72 31 0.0 0.0 0.00 0.27 0.06 98 1013.8
20260905112725 72 31 0.0 0.0 0.00 0.27 0.06 97 1013.7
20260905112638 72 31 0.0 0.0 0.00 0.27 0.06 97 1013.7
20260905112530 72 31 0.0 0.0 0.00 0.27 0.06 97 1013.7
20260905112443 72 31 0.0 0.0 0.00 0.27 0.06 97 1013.8
20260905112355 72 31 0.0 0.0 0.00 0.27 0.06 97 1013.8
20260905112231 72 31 0.0 0.0 0.00 0.27 0.06 97 1013.8
20260905112143 72 31 0.0 0.0 0.00 0.27 0.06 98 1013.8
20260905112056 72 31 0.0 0.0 0.00 0.27 0.06 98 1013.7
20260905111949 72 31 0.0 0.0 0.00 0.27 0.06 98 1013.7
20260905111901 72 31 0.0 0.0 0.00 0.27 0.06 98 1013.7
20260905111813 72 31 0.0 0.0 0.00 0.27 0.06 98 1013.7
20260905111713 72 31 0.0 0.0 0.00 0.27 0.06 98 1013.6
20260905111524 72 31 0.0 0.0 0.00 0.27 0.06 98 1013.5
20260905111437 72 31 0.0 0.0 0.00 0.27 0.06 98 1013.5
20260905111348 72 31 0.0 0.0 0.00 0.27 0.06 98 1013.4
20260905111300 72 31 0.0 0.0 0.00 0.27 0.06 98 1013.5
20260905111135 72 31 0.0 0.0 0.00 0.27 0.06 98 1013.5
20260905111026 72 31 0.0 0.0 0.00 0.27 0.06 98 1013.4
20260905110938 72 31 0.0 0.0 0.00 0.27 0.06 98 1013.5
20260905110829 72 31 0.0 4.0 0.00 0.27 0.06 98 1013.5
20260905110722 72 31 0.0 4.0 0.00 0.27 0.06 98 1013.5
20260905110634 72 31 0.0 5.0 0.00 0.27 0.06 98 1013.5
20260905110547 72 31 0.0 5.0 0.00 0.27 0.06 98 1013.5
20260905110438 72 31 0.0 5.0 0.00 0.27 0.06 98 1013.5
20260905110351 72 31 0.0 5.0 0.00 0.27 0.06 98 1013.4
20260905110225 72 31 0.0 5.0 0.00 0.27 0.06 98 1013.4
20260905110147 72 31 1.0 5.0 0.00 0.27 0.06 98 1013.4
20260905110039 72 31 2.0 5.0 0.01 0.27 0.06 98 1013.4
20260905105931 72 25 3.0 5.0 0.01 0.27 0.06 98 1013.5
20260905105823 72 57 3.0 5.0 0.01 0.27 0.06 98 1013.5
20260905105735 72 45 2.0 5.0 0.01 0.27 0.06 98 1013.5
20260905105648 72 37 1.0 5.0 0.01 0.27 0.06 98 1013.4
20260905105558 72 67 0.0 0.0 0.01 0.27 0.06 98 1013.4
20260905105449 72 74 0.0 0.0 0.01 0.27 0.06 98 1013.4
20260905105402 72 68 0.0 0.0 0.01 0.27 0.06 98 1013.3
20260905105253 72 68 0.0 0.0 0.01 0.27 0.06 98 1013.4
20260905105128 72 68 0.0 0.0 0.01 0.27 0.06 98 1013.4
20260905105040 72 68 0.0 0.0 0.01 0.27 0.06 98 1013.3
20260905104953 72 68 0.0 2.0 0.01 0.27 0.06 98 1013.4
20260905104825 72 68 0.0 4.0 0.01 0.27 0.06 98 1013.5
20260905104737 72 68 0.0 4.0 0.01 0.27 0.06 98 1013.5
20260905104659 72 68 0.0 4.0 0.01 0.27 0.06 98 1013.5
20260905104529 72 68 0.0 5.0 0.01 0.27 0.06 98 1013.5
20260905104421 72 68 0.0 5.0 0.01 0.27 0.06 98 1013.5
20260905104332 72 68 0.0 5.0 0.01 0.27 0.06 98 1013.4
20260905104247 72 68 0.0 5.0 0.01 0.27 0.06 98 1013.5
20260905104159 72 51 2.0 5.0 0.01 0.27 0.06 98 1013.5
20260905104030 72 75 2.0 5.0 0.01 0.27 0.06 98 1013.4
20260905103941 72 65 3.0 5.0 0.01 0.27 0.06 97 1013.5
20260905103854 72 28 3.0 5.0 0.01 0.27 0.06 97 1013.5
20260905103724 72 29 3.0 5.0 0.01 0.27 0.06 97 1013.5
20260905103637 72 48 3.0 5.0 0.01 0.27 0.06 97 1013.5
20260905103549 72 40 3.0 5.0 0.01 0.27 0.06 97 1013.5
20260905103420 72 28 3.0 4.0 0.01 0.27 0.06 97 1013.4
20260905103333 72 20 1.0 4.0 0.01 0.27 0.06 97 1013.5
20260905103247 72 28 0.0 1.0 0.01 0.27 0.06 97 1013.3
20260905103207 72 32 0.0 0.0 0.01 0.27 0.06 97 1013.3
20260905103037 72 186 0.0 0.0 0.01 0.27 0.06 97 1013.2
20260905102950 72 186 0.0 0.0 0.01 0.27 0.06 97 1013.2
20260905102901 72 186 0.0 0.0 0.01 0.27 0.06 97 1013.2
20260905102752 72 186 0.0 0.0 0.01 0.27 0.06 97 1013.2
20260905102704 72 186 0.0 0.0 0.01 0.27 0.06 97 1013.1
20260905102617 72 186 0.0 0.0 0.01 0.27 0.06 97 1013.1
20260905102528 72 186 0.0 0.0 0.01 0.27 0.06 97 1013.2
20260905102419 72 186 0.0 0.0 0.01 0.27 0.06 97 1013.1
20260905102310 72 186 0.0 0.0 0.01 0.27 0.06 97 1013.2
20260905102201 72 186 0.0 0.0 0.01 0.27 0.06 97 1013.2
20260905102052 72 186 0.0 0.0 0.01 0.27 0.06 97 1013.3
20260905101926 72 186 0.0 0.0 0.01 0.27 0.06 97 1013.2
20260905101839 72 186 0.0 0.0 0.01 0.27 0.06 97 1013.2
20260905101731 72 186 0.0 0.0 0.01 0.27 0.06 97 1013.1
20260905101653 72 186 0.0 0.0 0.01 0.27 0.06 97 1013.1
20260905101525 72 186 0.0 0.0 0.01 0.27 0.06 97 1013.1
20260905101438 72 186 0.0 0.0 0.01 0.27 0.06 97 1013.0
20260905101329 72 186 0.0 0.0 0.01 0.27 0.06 97 1013.1
20260905101222 72 186 0.0 0.0 0.01 0.27 0.06 97 1013.0
20260905101137 72 186 0.0 0.0 0.01 0.27 0.06 97 1013.0
20260905101049 72 186 0.0 0.0 0.01 0.27 0.06 97 1013.0
20260905100920 72 186 0.0 0.0 0.01 0.27 0.06 97 1013.0
20260905100832 72 186 0.0 0.0 0.01 0.27 0.06 97 1013.1
20260905100743 72 186 0.0 0.0 0.01 0.27 0.06 97 1013.0
20260905100655 72 186 0.0 0.0 0.01 0.27 0.06 97 1013.0
20260905100547 72 186 0.0 0.0 0.01 0.27 0.06 97 1013.1
20260905100439 72 186 0.0 0.0 0.01 0.27 0.06 97 1013.2
20260905100331 72 186 0.0 0.0 0.01 0.27 0.06 97 1013.1
20260905100221 72 186 0.0 0.0 0.01 0.27 0.06 97 1013.1
20260905100147 72 186 0.0 0.0 0.01 0.27 0.06 97 1013.1
20260905100039 72 186 0.0 0.0 0.00 0.26 0.05 97 1013.1
20260905095931 72 186 0.0 0.0 0.00 0.26 0.05 97 1013.1
20260905095842 72 186 0.0 0.0 0.00 0.26 0.05 97 1013.1
20260905095755 72 186 0.0 0.0 0.00 0.26 0.05 97 1013.2
20260905095628 72 186 0.0 0.0 0.00 0.26 0.05 97 1013.1
20260905095538 72 186 0.0 0.0 0.00 0.26 0.05 97 1013.2
20260905095428 72 186 0.0 0.0 0.00 0.26 0.05 97 1013.2
20260905095340 72 186 0.0 0.0 0.00 0.26 0.05 97 1013.1
20260905095253 72 186 0.0 0.0 0.00 0.26 0.05 97 1013.3
20260905095147 72 186 0.0 0.0 0.00 0.26 0.05 97 1013.3
20260905095038 72 186 0.0 0.0 0.00 0.26 0.05 97 1013.3
20260905094929 73 186 0.0 0.0 0.00 0.26 0.05 97 1013.3
20260905094821 73 186 0.0 0.0 0.00 0.26 0.05 97 1013.1
20260905094733 73 186 0.0 0.0 0.00 0.26 0.05 97 1013.2
20260905094656 73 186 0.0 0.0 0.00 0.26 0.05 97 1013.2
20260905094547 73 186 0.0 0.0 0.00 0.26 0.05 97 1013.2
20260905094438 73 186 0.0 0.0 0.00 0.26 0.05 97 1013.2
20260905094330 73 186 0.0 0.0 0.00 0.26 0.05 97 1013.2
20260905094242 73 186 0.0 0.0 0.00 0.26 0.05 97 1013.3
20260905094137 73 186 0.0 0.0 0.00 0.26 0.05 97 1013.3
20260905094030 73 186 0.0 0.0 0.00 0.26 0.05 97 1013.2
20260905093941 73 186 0.0 0.0 0.00 0.26 0.05 97 1013.2
20260905093853 73 186 0.0 0.0 0.00 0.26 0.05 97 1013.1
20260905093724 73 186 0.0 0.0 0.00 0.26 0.05 97 1013.2
20260905093636 73 186 0.0 0.0 0.00 0.26 0.05 97 1013.1
20260905093529 73 186 0.0 0.0 0.00 0.26 0.05 97 1013.3
20260905093442 73 186 0.0 0.0 0.00 0.26 0.05 97 1013.3
20260905093355 73 186 0.0 0.0 0.00 0.26 0.05 97 1013.3
20260905093246 73 186 0.0 0.0 0.00 0.26 0.05 97 1013.3
20260905093211 73 186 0.0 0.0 0.00 0.26 0.05 97 1013.3
20260905093102 73 186 0.0 0.0 0.00 0.26 0.05 97 1013.2
20260905093014 73 186 0.0 0.0 0.00 0.26 0.05 97 1013.3
20260905092904 73 186 0.0 0.0 0.00 0.26 0.05 97 1013.3
20260905092733 73 186 0.0 0.0 0.00 0.26 0.05 97 1013.3
20260905092626 73 186 0.0 0.0 0.00 0.26 0.05 97 1013.3
20260905092538 73 186 0.0 0.0 0.00 0.26 0.05 97 1013.3
20260905092429 73 186 0.0 0.0 0.00 0.26 0.05 97 1013.4
20260905092341 73 186 0.0 0.0 0.00 0.26 0.05 97 1013.4
20260905092252 73 186 0.0 0.0 0.00 0.26 0.05 97 1013.3
20260905092128 73 186 0.0 0.0 0.00 0.26 0.05 97 1013.3
20260905092020 73 186 0.0 0.0 0.00 0.26 0.05 97 1013.3
20260905091931 73 186 0.0 0.0 0.00 0.26 0.05 97 1013.3
20260905091823 73 186 0.0 0.0 0.00 0.26 0.05 97 1013.3
20260905091735 73 186 0.0 0.0 0.00 0.26 0.05 97 1013.3
20260905091657 73 186 0.0 0.0 0.00 0.26 0.05 97 1013.3
20260905091549 73 186 0.0 0.0 0.00 0.26 0.05 97 1013.3
20260905091439 73 186 0.0 0.0 0.00 0.26 0.05 97 1013.4
20260905091353 73 186 0.0 0.0 0.00 0.26 0.05 97 1013.3
20260905091244 73 137 0.0 1.0 0.00 0.26 0.05 97 1013.4
20260905091155 73 137 0.0 3.0 0.00 0.26 0.05 97 1013.5
20260905091050 73 137 0.0 3.0 0.00 0.26 0.05 97 1013.5
20260905090942 73 137 0.0 3.0 0.00 0.26 0.05 97 1013.4
20260905090854 73 137 0.0 3.0 0.00 0.26 0.05 97 1013.4
20260905090726 73 137 0.0 3.0 0.00 0.26 0.05 97 1013.5
20260905090638 73 137 0.0 3.0 0.00 0.26 0.05 97 1013.5
20260905090550 73 137 0.0 3.0 0.00 0.26 0.05 97 1013.5
20260905090439 73 137 1.0 3.0 0.00 0.26 0.05 97 1013.5
20260905090332 73 137 2.0 3.0 0.00 0.26 0.05 97 1013.6
20260905090241 73 137 2.0 3.0 0.00 0.26 0.05 97 1013.5
20260905090142 73 137 2.0 3.0 0.00 0.26 0.05 97 1013.5
20260905090032 73 137 2.0 3.0 0.00 0.26 0.05 97 1013.5
20260905085928 73 137 1.0 3.0 0.00 0.26 0.05 97 1013.4
20260905085821 73 137 0.0 3.0 0.00 0.26 0.05 97 1013.4
20260905085733 73 202 0.0 1.0 0.00 0.26 0.05 97 1013.4
20260905085626 73 202 0.0 1.0 0.00 0.26 0.05 97 1013.4
20260905085538 73 202 0.0 1.0 0.00 0.26 0.05 97 1013.4
20260905085429 73 202 0.0 1.0 0.00 0.26 0.05 97 1013.4
20260905085321 73 202 0.0 0.0 0.00 0.26 0.05 97 1013.4
20260905085233 73 202 0.0 0.0 0.00 0.26 0.05 97 1013.4
20260905085129 73 202 0.0 0.0 0.00 0.26 0.05 97 1013.4
20260905085042 73 202 0.0 0.0 0.00 0.26 0.05 97 1013.4
20260905084932 73 202 0.0 0.0 0.00 0.26 0.05 97 1013.4
20260905084844 73 202 0.0 0.0 0.00 0.26 0.05 97 1013.5
20260905084756 73 202 0.0 0.0 0.00 0.26 0.05 97 1013.5
20260905084717 73 202 0.0 0.0 0.00 0.26 0.05 97 1013.4
20260905084528 73 202 0.0 2.0 0.00 0.26 0.05 97 1013.4
20260905084439 73 202 0.0 2.0 0.00 0.26 0.05 97 1013.4
20260905084330 73 202 0.0 2.0 0.00 0.26 0.05 97 1013.4
20260905084226 73 202 0.0 2.0 0.00 0.26 0.05 97 1013.4
20260905084138 73 202 0.0 2.0 0.00 0.26 0.05 97 1013.3
20260905084030 73 202 0.0 2.0 0.00 0.26 0.05 97 1013.3
20260905083941 73 202 0.0 2.0 0.00 0.26 0.05 97 1013.3
20260905083832 73 202 0.0 2.0 0.00 0.26 0.05 97 1013.3
20260905083725 73 202 0.0 2.0 0.00 0.26 0.05 97 1013.3
20260905083638 73 202 0.0 2.0 0.00 0.26 0.05 97 1013.3
20260905083551 73 202 0.0 2.0 0.00 0.26 0.05 97 1013.2
20260905083442 73 186 1.0 2.0 0.00 0.26 0.05 97 1013.3
20260905083335 73 186 1.0 2.0 0.00 0.26 0.05 97 1013.3
20260905083230 73 168 0.0 3.0 0.00 0.26 0.05 97 1013.2
20260905083152 73 163 0.0 3.0 0.00 0.26 0.05 97 1013.2
20260905083042 73 170 0.0 3.0 0.00 0.26 0.05 97 1013.3
20260905082934 73 165 0.0 3.0 0.00 0.26 0.05 97 1013.1
20260905082845 73 165 0.0 3.0 0.00 0.26 0.05 97 1013.2
20260905082758 73 165 0.0 3.0 0.00 0.26 0.05 97 1013.2
20260905082711 73 174 1.0 3.0 0.00 0.26 0.05 97 1013.2
20260905082600 73 205 1.0 3.0 0.00 0.26 0.05 97 1013.2
20260905082432 73 205 2.0 3.0 0.00 0.26 0.05 97 1013.2
20260905082324 73 229 2.0 3.0 0.00 0.26 0.05 97 1013.2
20260905082220 73 219 2.0 3.0 0.00 0.26 0.05 97 1013.2
20260905082133 73 225 1.0 3.0 0.00 0.26 0.05 97 1013.2
20260905082025 73 106 0.0 1.0 0.00 0.26 0.05 97 1013.3
20260905081937 73 106 0.0 1.0 0.00 0.26 0.05 97 1013.3
20260905081848 73 106 0.0 1.0 0.00 0.26 0.05 97 1013.3
20260905081738 73 106 0.0 1.0 0.00 0.26 0.05 97 1013.3
20260905081700 73 106 0.0 1.0 0.00 0.26 0.05 97 1013.3
20260905081531 73 106 0.0 1.0 0.00 0.26 0.05 97 1013.2
20260905081442 73 106 0.0 1.0 0.00 0.26 0.05 97 1013.2
20260905081350 73 106 0.0 0.0 0.00 0.26 0.05 96 1013.3
20260905081241 73 106 0.0 0.0 0.00 0.26 0.05 96 1013.2
20260905081158 73 106 0.0 0.0 0.00 0.26 0.05 96 1013.3
20260905081050 73 106 0.0 0.0 0.00 0.26 0.05 96 1013.3
20260905080920 73 106 0.0 0.0 0.00 0.26 0.05 96 1013.3
20260905080831 73 106 0.0 0.0 0.00 0.26 0.05 96 1013.3
20260905080744 73 106 0.0 0.0 0.00 0.26 0.05 96 1013.4
20260905080657 73 106 0.0 0.0 0.00 0.26 0.05 96 1013.2
20260905080529 73 106 0.0 0.0 0.00 0.26 0.05 96 1013.3
20260905080442 73 106 0.0 0.0 0.00 0.26 0.05 96 1013.3
20260905080333 73 106 0.0 0.0 0.00 0.26 0.05 96 1013.2
20260905080243 73 106 0.0 0.0 0.00 0.26 0.05 96 1013.3
20260905080205 73 106 0.0 0.0 0.00 0.26 0.05 96 1013.3
20260905080020 73 106 0.0 0.0 0.00 0.26 0.05 96 1013.3
20260905075933 73 106 0.0 0.0 0.00 0.26 0.05 96 1013.2
20260905075846 73 106 0.0 0.0 0.00 0.26 0.05 96 1013.2
20260905075736 73 106 0.0 1.0 0.00 0.26 0.05 96 1013.2
20260905075627 73 106 0.0 1.0 0.00 0.26 0.05 96 1013.2
20260905075540 73 106 0.0 1.0 0.01 0.26 0.05 96 1013.2
20260905075452 73 106 0.0 1.0 0.02 0.26 0.05 96 1013.3
20260905075323 73 106 0.0 1.0 0.03 0.26 0.05 96 1013.2
20260905075235 73 106 0.0 1.0 0.03 0.26 0.05 96 1013.2
20260905075130 73 106 0.0 1.0 0.03 0.26 0.05 96 1013.1
20260905075041 73 106 0.0 1.0 0.03 0.26 0.05 96 1013.1
20260905074932 73 106 0.0 1.0 0.03 0.26 0.05 96 1013.1
20260905074823 73 106 0.0 1.0 0.03 0.26 0.05 96 1013.1
20260905074735 73 106 0.0 2.0 0.03 0.26 0.05 96 1013.1
20260905074659 73 106 0.0 2.0 0.03 0.26 0.05 96 1013.1
20260905074529 73 106 0.0 3.0 0.03 0.26 0.05 96 1013.1
20260905074421 73 106 0.0 3.0 0.03 0.26 0.05 96 1013.1
20260905074333 73 106 0.0 3.0 0.03 0.26 0.05 96 1013.1
20260905074224 73 106 0.0 3.0 0.03 0.26 0.05 96 1013.1
20260905074120 73 106 0.0 3.0 0.03 0.26 0.05 96 1012.9
20260905074032 73 106 0.0 3.0 0.03 0.26 0.05 96 1013.1
20260905073923 73 106 1.0 3.0 0.03 0.26 0.05 96 1013.1
20260905073836 73 106 2.0 3.0 0.03 0.26 0.05 96 1013.2
20260905073729 73 106 1.0 3.0 0.03 0.26 0.05 96 1013.2
20260905073620 73 106 0.0 4.0 0.03 0.26 0.05 96 1013.2
20260905073531 73 106 0.0 4.0 0.03 0.26 0.05 96 1013.2
20260905073422 73 106 0.0 4.0 0.03 0.26 0.05 96 1013.2
20260905073338 73 106 1.0 4.0 0.03 0.26 0.05 96 1013.3
20260905073229 73 106 1.0 4.0 0.03 0.26 0.05 96 1013.2
20260905073151 73 106 2.0 4.0 0.03 0.26 0.05 96 1013.2
20260905073022 73 106 3.0 4.0 0.03 0.26 0.05 96 1013.2
20260905072932 73 106 3.0 4.0 0.03 0.26 0.05 96 1013.1
20260905072824 73 106 3.0 4.0 0.03 0.26 0.05 96 1013.2
20260905072736 73 106 2.0 3.0 0.03 0.26 0.05 96 1013.2
20260905072628 73 106 2.0 4.0 0.03 0.26 0.05 96 1013.3
20260905072524 73 106 2.0 4.0 0.03 0.26 0.05 96 1013.3
20260905072435 73 106 2.0 4.0 0.03 0.26 0.05 96 1013.3
20260905072326 73 106 2.0 4.0 0.03 0.26 0.05 96 1013.2
20260905072238 73 106 2.0 4.0 0.03 0.26 0.05 96 1013.2
20260905072151 73 106 1.0 4.0 0.03 0.26 0.05 96 1013.2
20260905072042 73 106 1.0 4.0 0.03 0.26 0.05 96 1013.1
20260905071932 73 106 1.0 4.0 0.03 0.26 0.05 96 1013.2
20260905071823 73 106 1.0 4.0 0.03 0.26 0.05 96 1013.2
20260905071734 73 106 0.0 4.0 0.03 0.26 0.05 96 1013.2
20260905071656 73 106 1.0 4.0 0.03 0.26 0.05 96 1013.2
20260905071531 73 106 1.0 4.0 0.03 0.26 0.05 96 1013.4
20260905071424 73 106 0.0 4.0 0.03 0.26 0.05 96 1013.3
20260905071336 73 106 0.0 6.0 0.03 0.26 0.05 96 1013.3
20260905071229 73 106 0.0 6.0 0.03 0.26 0.05 96 1013.3
20260905071121 73 106 1.0 8.0 0.03 0.26 0.05 96 1013.4
20260905071033 73 106 2.0 8.0 0.03 0.26 0.05 96 1013.4
20260905070926 73 106 2.0 8.0 0.03 0.26 0.05 96 1013.3
20260905070838 73 106 2.0 8.0 0.03 0.26 0.05 96 1013.2
20260905070734 73 106 2.0 8.0 0.03 0.26 0.05 96 1013.2
20260905070626 73 106 3.0 12.0 0.03 0.26 0.05 96 1013.2
20260905070538 73 106 4.0 12.0 0.03 0.26 0.05 96 1013.3
20260905070431 73 95 4.0 12.0 0.04 0.26 0.05 96 1013.3
20260905070322 73 96 4.0 12.0 0.04 0.26 0.05 96 1013.3
20260905070234 73 76 2.0 12.0 0.04 0.26 0.05 95 1013.3
20260905070156 73 76 2.0 12.0 0.04 0.26 0.05 95 1013.3
20260905070027 73 158 3.0 12.0 0.04 0.26 0.05 95 1013.3
20260905065924 73 158 6.0 12.0 0.04 0.26 0.05 95 1013.2
20260905065837 73 152 7.0 12.0 0.04 0.26 0.05 95 1013.1
20260905065729 73 131 8.0 12.0 0.04 0.26 0.05 95 1013.1
20260905065620 73 109 6.0 12.0 0.03 0.25 0.04 95 1013.1
20260905065532 73 74 4.0 9.0 0.03 0.25 0.04 95 1013.2
20260905065422 73 79 3.0 9.0 0.02 0.24 0.03 95 1013.3
20260905065335 73 80 3.0 9.0 0.01 0.23 0.02 95 1013.2
20260905065248 73 91 4.0 9.0 0.01 0.23 0.02 95 1013.1
20260905065139 73 140 6.0 9.0 0.01 0.23 0.02 95 1013.0
20260905065051 73 142 5.0 9.0 0.01 0.23 0.02 95 1013.0
20260905064946 73 138 6.0 9.0 0.01 0.23 0.02 95 1012.9
20260905064836 73 135 6.0 9.0 0.01 0.23 0.02 95 1013.0
20260905064728 74 117 6.0 9.0 0.01 0.23 0.02 95 1012.9
20260905064651 74 136 5.0 9.0 0.01 0.23 0.02 95 1012.9
20260905064522 74 98 5.0 9.0 0.01 0.23 0.02 95 1013.2
20260905064435 74 84 5.0 9.0 0.01 0.23 0.02 95 1013.2
20260905064326 74 74 4.0 7.0 0.01 0.23 0.02 95 1013.3
20260905064238 74 53 4.0 7.0 0.01 0.23 0.02 95 1013.4
20260905064130 74 59 4.0 6.0 0.01 0.23 0.02 95 1013.3
20260905064026 74 22 3.0 6.0 0.01 0.23 0.02 95 1013.3
20260905063938 74 54 3.0 6.0 0.01 0.23 0.02 95 1013.3
20260905063829 74 78 3.0 6.0 0.01 0.23 0.02 95 1013.3
20260905063722 74 63 4.0 6.0 0.01 0.23 0.02 95 1013.4
20260905063635 74 63 3.0 9.0 0.01 0.23 0.02 95 1013.4
20260905063528 74 31 2.0 9.0 0.01 0.23 0.02 95 1013.3
20260905063420 74 71 2.0 9.0 0.01 0.23 0.02 95 1013.4
20260905063331 74 71 3.0 9.0 0.01 0.23 0.02 95 1013.4
20260905063247 74 61 3.0 9.0 0.01 0.23 0.02 95 1013.4
20260905063149 74 63 4.0 9.0 0.01 0.23 0.02 95 1013.4
20260905063020 74 67 4.0 10.0 0.02 0.23 0.02 95 1013.4
20260905062932 74 107 5.0 10.0 0.02 0.23 0.02 95 1013.5
20260905062824 74 76 5.0 10.0 0.02 0.23 0.02 95 1013.5
20260905062737 74 86 5.0 10.0 0.02 0.23 0.02 95 1013.5
20260905062629 74 112 7.0 10.0 0.02 0.23 0.02 95 1013.5
20260905062540 74 103 7.0 10.0 0.02 0.23 0.02 95 1013.5
20260905062452 74 94 6.0 10.0 0.02 0.23 0.02 95 1013.5
20260905062405 74 63 5.0 10.0 0.02 0.23 0.02 95 1013.6
20260905062300 74 93 6.0 10.0 0.02 0.23 0.02 95 1013.5
20260905062132 74 95 6.0 10.0 0.02 0.23 0.02 95 1013.5
20260905062024 74 96 5.0 9.0 0.02 0.23 0.02 95 1013.6
20260905061936 74 103 5.0 9.0 0.02 0.23 0.02 95 1013.5
20260905061848 74 123 6.0 9.0 0.02 0.23 0.02 95 1013.5
20260905061739 74 103 7.0 9.0 0.02 0.23 0.02 95 1013.4
20260905061701 74 123 6.0 9.0 0.02 0.23 0.02 95 1013.4
20260905061552 74 113 6.0 9.0 0.02 0.23 0.02 95 1013.3
20260905061422 74 118 5.0 9.0 0.02 0.23 0.02 95 1013.2
20260905061334 74 141 5.0 9.0 0.02 0.23 0.02 95 1013.2
20260905061249 74 134 5.0 9.0 0.02 0.23 0.02 95 1013.2
20260905061139 74 125 5.0 9.0 0.02 0.23 0.02 95 1013.1
20260905061031 74 128 4.0 7.0 0.02 0.23 0.02 94 1013.2
20260905060923 74 135 4.0 7.0 0.02 0.23 0.02 94 1013.3
20260905060834 74 136 4.0 9.0 0.02 0.23 0.02 94 1013.3
20260905060746 74 111 2.0 9.0 0.02 0.23 0.02 94 1013.3
20260905060638 74 73 2.0 9.0 0.02 0.23 0.02 94 1013.4
20260905060550 74 73 2.0 9.0 0.02 0.23 0.02 94 1013.4
20260905060501 74 73 3.0 9.0 0.01 0.22 0.01 94 1013.5
20260905060354 74 75 4.0 9.0 0.01 0.22 0.01 94 1013.4
20260905060225 74 44 5.0 9.0 0.01 0.22 0.01 94 1013.3
20260905060147 74 96 6.0 9.0 0.01 0.22 0.01 94 1013.3
20260905060038 74 105 6.0 9.0 0.01 0.22 0.01 94 1013.4
20260905055930 74 99 7.0 9.0 0.01 0.22 0.01 94 1013.4
20260905055842 74 100 6.0 10.0 0.01 0.22 0.01 94 1013.5
20260905055753 74 90 4.0 10.0 0.01 0.22 0.01 94 1013.5
20260905055625 74 89 3.0 10.0 0.01 0.22 0.01 94 1013.6
20260905055537 74 46 4.0 10.0 0.01 0.22 0.01 94 1013.7
20260905055429 74 68 5.0 10.0 0.01 0.22 0.01 94 1013.6
20260905055325 74 67 5.0 10.0 0.01 0.22 0.01 94 1013.5
20260905055237 74 84 5.0 10.0 0.01 0.22 0.01 94 1013.6
20260905055149 74 58 6.0 10.0 0.01 0.22 0.01 94 1013.6
20260905055102 74 68 6.0 10.0 0.01 0.22 0.01 94 1013.8
20260905054953 74 44 7.0 10.0 0.01 0.22 0.01 94 1013.8
20260905054843 74 51 6.0 10.0 0.01 0.22 0.01 94 1013.7
20260905054755 74 98 5.0 10.0 0.01 0.22 0.01 94 1013.7
20260905054718 74 91 3.0 10.0 0.01 0.22 0.01 94 1013.8
20260905054548 74 60 3.0 10.0 0.01 0.22 0.01 94 1014.0
20260905054438 74 325 5.0 10.0 0.01 0.22 0.01 94 1014.2
20260905054331 75 281 6.0 10.0 0.01 0.22 0.01 93 1014.3
20260905054241 75 327 5.0 8.0 0.01 0.22 0.01 93 1014.3
20260905054136 75 311 5.0 8.0 0.01 0.22 0.01 93 1014.3
20260905054029 75 299 4.0 8.0 0.01 0.22 0.01 93 1014.2
20260905053920 75 360 4.0 8.0 0.01 0.22 0.01 93 1014.1
20260905053833 75 34 4.0 8.0 0.01 0.22 0.01 93 1014.1
20260905053724 75 31 3.0 8.0 0.01 0.22 0.01 93 1014.2
20260905053636 75 336 2.0 8.0 0.01 0.22 0.01 93 1014.3
20260905053527 75 327 3.0 8.0 0.01 0.22 0.01 93 1014.3
20260905053439 75 323 4.0 8.0 0.01 0.22 0.01 93 1014.3
20260905053336 75 290 5.0 8.0 0.01 0.22 0.01 93 1014.1
20260905053226 75 355 5.0 8.0 0.01 0.22 0.01 92 1014.0
20260905053148 75 344 5.0 8.0 0.00 0.21 0.00 92 1014.0
20260905053039 75 29 3.0 8.0 0.00 0.21 0.00 92 1013.8
20260905052950 75 349 2.0 6.0 0.00 0.21 0.00 92 1013.8
20260905052903 75 88 2.0 6.0 0.00 0.21 0.00 92 1013.4
20260905052754 75 88 2.0 6.0 0.00 0.21 0.00 92 1013.3
20260905052644 75 88 2.0 6.0 0.00 0.21 0.00 92 1013.3
20260905052554 75 88 2.0 6.0 0.00 0.21 0.00 92 1013.3
20260905052446 75 88 3.0 6.0 0.00 0.21 0.00 92 1013.4
20260905052358 75 88 3.0 7.0 0.00 0.21 0.00 92 1013.5
20260905052232 75 102 3.0 7.0 0.00 0.21 0.00 92 1013.5
20260905052145 75 116 3.0 7.0 0.00 0.21 0.00 92 1013.5
20260905052056 75 101 2.0 7.0 0.00 0.21 0.00 92 1013.5
20260905051927 75 81 2.0 7.0 0.00 0.21 0.00 92 1013.4
20260905051838 75 81 2.0 7.0 0.00 0.21 0.00 92 1013.3
20260905051729 75 112 3.0 7.0 0.00 0.21 0.00 92 1013.3
20260905051652 75 112 4.0 7.0 0.00 0.21 0.00 92 1013.3
20260905051543 75 91 4.0 6.0 0.00 0.21 0.00 92 1013.2
20260905051435 75 109 4.0 6.0 0.00 0.21 0.00 92 1013.2
20260905051328 75 104 3.0 7.0 0.00 0.21 0.00 92 1013.3
20260905051224 75 74 2.0 6.0 0.00 0.21 0.00 92 1013.3
20260905051136 75 67 2.0 6.0 0.00 0.21 0.00 92 1013.3
20260905051027 75 81 2.0 6.0 0.00 0.21 0.00 92 1013.3
20260905050920 75 89 2.0 5.0 0.00 0.21 0.00 92 1013.4
20260905050832 75 89 2.0 5.0 0.00 0.21 0.00 92 1013.5
20260905050744 75 93 2.0 7.0 0.00 0.21 0.00 92 1013.6
20260905050634 75 51 2.0 7.0 0.00 0.21 0.00 92 1013.6
20260905050546 75 80 2.0 8.0 0.00 0.21 0.00 92 1013.7
20260905050458 76 80 2.0 8.0 0.00 0.21 0.00 92 1013.7
20260905050328 76 102 3.0 8.0 0.00 0.21 0.00 92 1013.7
20260905050222 76 71 3.0 8.0 0.00 0.21 0.00 92 1013.6
20260905050144 76 94 3.0 8.0 0.00 0.21 0.00 92 1013.5
20260905050036 76 71 5.0 8.0 0.00 0.21 0.00 92 1013.6
20260905045927 76 103 5.0 8.0 0.00 0.21 0.00 92 1013.5
20260905045820 76 92 5.0 8.0 0.00 0.21 0.00 92 1013.6
20260905045731 76 101 4.0 8.0 0.00 0.21 0.00 92 1013.6
20260905045623 76 94 4.0 7.0 0.00 0.21 0.00 92 1013.7
20260905045535 76 84 3.0 6.0 0.00 0.21 0.00 92 1013.8
20260905045447 76 113 3.0 6.0 0.00 0.21 0.00 92 1013.8
20260905045340 76 88 4.0 6.0 0.00 0.21 0.00 92 1013.9
20260905045256 76 103 4.0 6.0 0.00 0.21 0.00 92 1013.8
20260905045148 76 92 3.0 6.0 0.00 0.21 0.00 92 1013.8
20260905045100 76 90 4.0 6.0 0.00 0.21 0.00 92 1013.8
20260905044932 76 106 4.0 6.0 0.00 0.21 0.00 92 1013.7
20260905044824 76 116 4.0 6.0 0.00 0.21 0.00 92 1013.7
20260905044736 76 114 4.0 6.0 0.00 0.21 0.00 92 1013.7
20260905044659 76 123 4.0 5.0 0.00 0.21 0.00 92 1013.7
20260905044531 76 122 4.0 6.0 0.00 0.21 0.00 91 1013.5
20260905044422 76 154 4.0 6.0 0.00 0.21 0.00 91 1013.4
20260905044338 76 153 4.0 5.0 0.00 0.21 0.00 91 1013.4
20260905044231 76 139 3.0 4.0 0.00 0.21 0.00 91 1013.2
20260905044123 76 128 3.0 4.0 0.00 0.21 0.00 91 1013.2
20260905044035 76 128 3.0 4.0 0.00 0.21 0.00 91 1013.3
20260905043946 76 110 3.0 4.0 0.00 0.21 0.00 91 1013.5
20260905043858 76 107 3.0 4.0 0.00 0.21 0.00 91 1013.6
20260905043749 76 96 2.0 4.0 0.00 0.21 0.00 91 1013.7
20260905043620 76 96 2.0 4.0 0.00 0.21 0.00 91 1013.7
20260905043532 76 85 2.0 4.0 0.00 0.21 0.00 91 1013.7
20260905043428 76 73 2.0 4.0 0.00 0.21 0.00 91 1013.7
20260905043340 76 65 1.0 3.0 0.00 0.21 0.00 91 1013.7
20260905043252 76 65 1.0 3.0 0.00 0.21 0.00 91 1013.7
20260905043212 76 65 1.0 3.0 0.00 0.21 0.00 91 1013.7
20260905043041 76 65 1.0 3.0 0.00 0.21 0.00 91 1013.6
20260905042953 76 65 1.0 3.0 0.00 0.21 0.00 91 1013.7
20260905042824 76 79 1.0 3.0 0.00 0.21 0.00 91 1013.8
20260905042736 76 79 1.0 3.0 0.00 0.21 0.00 91 1013.8
20260905042648 76 44 1.0 3.0 0.00 0.21 0.00 91 1013.8
20260905042558 76 126 0.0 5.0 0.00 0.21 0.00 91 1013.8
20260905042430 76 126 1.0 5.0 0.00 0.21 0.00 91 1013.7
20260905042326 76 126 1.0 5.0 0.00 0.21 0.00 91 1013.7
20260905042239 76 126 1.0 5.0 0.00 0.21 0.00 91 1013.8
20260905042151 76 82 2.0 5.0 0.00 0.21 0.00 91 1013.6
20260905042021 76 103 2.0 5.0 0.00 0.21 0.00 91 1013.6
20260905041934 76 74 3.0 5.0 0.00 0.21 0.00 91 1013.6
20260905041827 76 136 3.0 6.0 0.00 0.21 0.00 91 1013.7
20260905041740 77 134 4.0 6.0 0.00 0.21 0.00 91 1013.7
20260905041701 77 111 3.0 6.0 0.00 0.21 0.00 90 1013.7
20260905041532 77 113 3.0 6.0 0.00 0.21 0.00 91 1013.6
20260905041444 77 113 3.0 6.0 0.00 0.21 0.00 90 1013.7
20260905041400 77 96 3.0 6.0 0.00 0.21 0.00 90 1013.8
20260905041231 77 84 3.0 6.0 0.00 0.21 0.00 90 1013.8
20260905041123 77 80 3.0 6.0 0.00 0.21 0.00 90 1013.8
20260905041035 77 69 3.0 6.0 0.00 0.21 0.00 90 1013.9
20260905040928 77 49 2.0 5.0 0.00 0.21 0.00 90 1014.0
20260905040840 77 52 2.0 5.0 0.00 0.21 0.00 90 1014.1
20260905040751 77 34 3.0 5.0 0.00 0.21 0.00 90 1014.0
20260905040622 77 41 3.0 5.0 0.00 0.21 0.00 90 1014.0
20260905040534 77 28 4.0 5.0 0.00 0.21 0.00 90 1014.0
20260905040431 77 18 4.0 7.0 0.00 0.21 0.00 90 1014.0
20260905040342 77 12 3.0 7.0 0.00 0.21 0.00 90 1014.0
20260905040232 77 30 3.0 7.0 0.00 0.21 0.21 90 1013.9
20260905040152 77 76 4.0 7.0 0.00 0.21 0.21 90 1013.9
20260905040044 77 48 3.0 7.0 0.00 0.21 0.21 89 1013.9
20260905035948 77 27 3.0 8.0 0.00 0.21 0.21 90 1013.7
20260905035839 77 82 3.0 8.0 0.00 0.21 0.21 90 1013.7
20260905035731 77 80 4.0 8.0 0.00 0.21 0.21 89 1013.7
20260905035622 77 91 4.0 8.0 0.00 0.21 0.21 89 1013.6
20260905035534 77 111 4.0 8.0 0.00 0.21 0.21 89 1013.7
20260905035429 77 124 4.0 8.0 0.00 0.21 0.21 89 1013.6
20260905035342 77 130 3.0 10.0 0.00 0.21 0.21 89 1013.6
20260905035233 77 126 4.0 10.0 0.00 0.21 0.21 89 1013.6
20260905035145 77 144 5.0 10.0 0.00 0.21 0.21 89 1013.6
20260905035034 77 150 3.0 10.0 0.00 0.21 0.21 89 1013.7
20260905034926 77 153 2.0 10.0 0.00 0.21 0.21 89 1013.7
20260905034840 77 142 3.0 10.0 0.00 0.21 0.21 89 1013.7
20260905034751 77 142 5.0 10.0 0.00 0.21 0.21 89 1013.7
20260905034714 77 134 6.0 10.0 0.00 0.21 0.21 89 1013.8
20260905034542 77 123 6.0 10.0 0.00 0.21 0.21 89 1013.9
20260905034434 77 113 5.0 9.0 0.00 0.21 0.21 89 1013.8
20260905034330 77 116 5.0 9.0 0.00 0.21 0.21 89 1013.9
20260905034221 77 104 5.0 9.0 0.00 0.21 0.21 90 1013.9
20260905034134 77 123 5.0 9.0 0.00 0.21 0.21 89 1013.9
20260905034027 77 123 6.0 9.0 0.00 0.21 0.21 90 1013.9
20260905033939 77 128 6.0 9.0 0.00 0.21 0.21 89 1013.9
20260905033831 77 137 5.0 8.0 0.00 0.21 0.21 90 1013.9
20260905033723 77 107 5.0 8.0 0.00 0.21 0.21 90 1013.8
20260905033634 78 123 5.0 8.0 0.00 0.21 0.21 90 1013.9
20260905033529 78 107 5.0 8.0 0.00 0.21 0.21 90 1013.9
20260905033442 78 144 5.0 9.0 0.00 0.21 0.21 90 1013.9
20260905033335 78 135 5.0 9.0 0.00 0.21 0.21 90 1013.8
20260905033245 78 127 4.0 9.0 0.00 0.21 0.21 90 1013.8
20260905033206 78 142 4.0 9.0 0.00 0.21 0.21 89 1013.8
20260905033036 78 132 4.0 9.0 0.00 0.21 0.21 89 1013.9
20260905032948 78 138 3.0 9.0 0.00 0.21 0.21 89 1013.9
20260905032840 78 146 4.0 9.0 0.00 0.21 0.21 89 1013.9
20260905032750 78 139 5.0 9.0 0.00 0.21 0.21 89 1013.9
20260905032642 78 132 5.0 9.0 0.00 0.21 0.21 89 1013.9
20260905032553 78 117 5.0 9.0 0.00 0.21 0.21 90 1014.0
20260905032429 78 135 5.0 9.0 0.00 0.21 0.21 89 1014.0
20260905032340 78 136 5.0 9.0 0.00 0.21 0.21 89 1014.0
20260905032231 78 126 5.0 9.0 0.00 0.21 0.21 90 1014.0
20260905032123 78 119 6.0 9.0 0.00 0.21 0.21 89 1014.0
20260905032035 78 130 6.0 9.0 0.00 0.21 0.21 89 1014.1
20260905031927 78 123 5.0 9.0 0.00 0.21 0.21 90 1014.1
20260905031839 78 136 4.0 9.0 0.00 0.21 0.21 89 1014.1
20260905031731 78 152 4.0 8.0 0.00 0.21 0.21 90 1014.2
20260905031652 78 136 4.0 8.0 0.00 0.21 0.21 90 1014.2
20260905031527 78 136 4.0 8.0 0.00 0.21 0.21 90 1014.1
20260905031420 78 134 5.0 8.0 0.00 0.21 0.21 90 1014.0
20260905031331 78 117 5.0 8.0 0.00 0.21 0.21 90 1014.1
20260905031224 78 112 4.0 8.0 0.00 0.21 0.21 90 1014.1
20260905031136 78 105 4.0 6.0 0.00 0.21 0.21 90 1014.1
20260905031028 78 117 4.0 5.0 0.00 0.21 0.21 90 1014.1
20260905030938 78 120 3.0 6.0 0.00 0.21 0.21 90 1014.2
20260905030849 78 144 2.0 7.0 0.00 0.21 0.21 90 1014.3
20260905030720 78 126 3.0 7.0 0.00 0.21 0.21 90 1014.3
20260905030637 78 98 3.0 7.0 0.00 0.21 0.21 90 1014.3
20260905030548 78 78 3.0 7.0 0.00 0.21 0.21 90 1014.2
20260905030501 78 97 3.0 7.0 0.00 0.21 0.21 90 1014.4
20260905030351 78 94 3.0 7.0 0.00 0.21 0.21 90 1014.4
20260905030304 78 104 4.0 7.0 0.00 0.21 0.21 90 1014.4
20260905030203 78 86 4.0 7.0 0.00 0.21 0.21 90 1014.4
20260905030054 78 111 3.0 7.0 0.00 0.21 0.21 90 1014.4
20260905025925 79 115 3.0 7.0 0.00 0.21 0.21 90 1014.4
20260905025838 79 109 3.0 7.0 0.00 0.21 0.21 90 1014.4
20260905025749 79 128 3.0 7.0 0.00 0.21 0.21 90 1014.4
20260905025639 79 128 3.0 8.0 0.00 0.21 0.21 90 1014.3
20260905025530 79 123 4.0 8.0 0.00 0.21 0.21 90 1014.3
20260905025425 79 132 4.0 8.0 0.00 0.21 0.21 90 1014.3
20260905025338 79 128 3.0 8.0 0.00 0.21 0.21 90 1014.3
20260905025232 79 114 3.0 8.0 0.00 0.21 0.21 90 1014.5
20260905025145 79 104 3.0 8.0 0.00 0.21 0.21 90 1014.3
20260905025056 79 96 4.0 8.0 0.00 0.21 0.21 90 1014.3
20260905024928 79 107 3.0 8.0 0.00 0.21 0.21 90 1014.4
20260905024839 79 125 3.0 8.0 0.00 0.21 0.21 90 1014.4
20260905024731 79 128 4.0 7.0 0.00 0.21 0.21 90 1014.4
20260905024653 79 107 4.0 7.0 0.00 0.21 0.21 90 1014.4
20260905024529 79 128 4.0 7.0 0.00 0.21 0.21 90 1014.4
20260905024421 79 119 4.0 7.0 0.00 0.21 0.21 90 1014.4
20260905024332 79 129 5.0 7.0 0.00 0.21 0.21 90 1014.4
20260905024225 79 119 4.0 7.0 0.00 0.21 0.21 90 1014.3
20260905024136 79 139 3.0 7.0 0.00 0.21 0.21 90 1014.4
20260905024028 79 121 3.0 6.0 0.00 0.21 0.21 90 1014.4
20260905023921 79 121 3.0 6.0 0.00 0.21 0.21 90 1014.4
20260905023833 79 121 3.0 6.0 0.00 0.21 0.21 90 1014.4
20260905023728 79 81 3.0 6.0 0.00 0.21 0.21 90 1014.4
20260905023620 79 117 2.0 6.0 0.00 0.21 0.21 90 1014.3
20260905023532 79 108 2.0 6.0 0.00 0.21 0.21 90 1014.4
20260905023424 79 109 2.0 6.0 0.00 0.21 0.21 90 1014.4
20260905023339 79 108 3.0 6.0 0.00 0.21 0.21 90 1014.4
20260905023239 79 98 3.0 6.0 0.00 0.21 0.21 90 1014.4
20260905023142 79 107 3.0 6.0 0.00 0.21 0.21 90 1014.4
20260905023033 79 121 4.0 6.0 0.00 0.21 0.21 90 1014.4
20260905022925 79 119 4.0 6.0 0.00 0.21 0.21 90 1014.5
20260905022821 79 113 4.0 6.0 0.00 0.21 0.21 90 1014.5
20260905022733 79 123 3.0 6.0 0.00 0.21 0.21 90 1014.4
20260905022624 80 105 3.0 6.0 0.00 0.21 0.21 90 1014.4
20260905022536 80 112 3.0 6.0 0.00 0.21 0.21 90 1014.4
20260905022428 80 106 3.0 6.0 0.00 0.21 0.21 90 1014.5
20260905022320 80 118 3.0 6.0 0.00 0.21 0.21 90 1014.4
20260905022233 80 117 3.0 6.0 0.00 0.21 0.21 90 1014.4
20260905022125 80 96 2.0 6.0 0.00 0.21 0.21 90 1014.4
20260905022042 80 132 2.0 6.0 0.00 0.21 0.21 90 1014.4
20260905021954 80 132 3.0 6.0 0.00 0.21 0.21 90 1014.4
20260905021826 80 76 3.0 6.0 0.00 0.21 0.21 89 1014.4
20260905021736 80 96 3.0 4.0 0.00 0.21 0.21 89 1014.4
20260905021657 80 96 3.0 4.0 0.00 0.21 0.21 89 1014.4
20260905021528 80 96 2.0 4.0 0.00 0.21 0.21 89 1014.3
20260905021420 80 96 2.0 4.0 0.00 0.21 0.21 89 1014.3
20260905021332 80 96 2.0 4.0 0.00 0.21 0.21 89 1014.4
20260905021224 80 96 1.0 4.0 0.00 0.21 0.21 89 1014.3
20260905021121 80 96 1.0 4.0 0.00 0.21 0.21 89 1014.4
20260905021033 80 96 2.0 4.0 0.00 0.21 0.21 89 1014.4
20260905020946 80 96 2.0 4.0 0.00 0.21 0.21 89 1014.4
20260905020857 80 96 3.0 4.0 0.00 0.21 0.21 89 1014.3
20260905020728 80 96 3.0 4.0 0.00 0.21 0.21 89 1014.3
20260905020641 80 94 3.0 4.0 0.00 0.21 0.21 89 1014.3
20260905020531 80 103 3.0 4.0 0.00 0.21 0.21 89 1014.3
20260905020424 80 108 2.0 6.0 0.00 0.21 0.21 89 1014.3
20260905020336 80 80 2.0 6.0 0.00 0.21 0.21 89 1014.2
20260905020230 80 104 2.0 6.0 0.00 0.21 0.21 89 1014.2
20260905020154 80 104 3.0 6.0 0.00 0.21 0.21 89 1014.2
20260905020025 80 88 2.0 6.0 0.00 0.21 0.21 89 1014.1
20260905015938 80 116 2.0 7.0 0.00 0.21 0.21 89 1014.2
20260905015829 80 116 3.0 7.0 0.00 0.21 0.21 89 1014.2
20260905015721 80 81 4.0 7.0 0.00 0.21 0.21 89 1014.2
20260905015634 80 101 4.0 8.0 0.00 0.21 0.21 89 1014.2
20260905015526 80 109 3.0 8.0 0.00 0.21 0.21 89 1014.2
20260905015422 80 104 4.0 8.0 0.00 0.21 0.21 89 1014.1
20260905015334 80 104 4.0 8.0 0.00 0.21 0.21 89 1014.1
20260905015226 80 126 4.0 8.0 0.00 0.21 0.21 89 1014.1
20260905015138 80 96 3.0 8.0 0.00 0.21 0.21 89 1014.1
20260905015029 80 122 3.0 8.0 0.00 0.21 0.21 89 1014.2
20260905014920 80 103 4.0 8.0 0.00 0.21 0.21 89 1014.0
20260905014832 80 116 4.0 8.0 0.00 0.21 0.21 89 1014.0
20260905014724 80 103 4.0 8.0 0.00 0.21 0.21 89 1013.9
20260905014645 80 121 4.0 8.0 0.00 0.21 0.21 89 1013.9
20260905014521 80 118 4.0 8.0 0.00 0.21 0.21 89 1013.9
20260905014434 80 121 3.0 8.0 0.00 0.21 0.21 89 1014.0
20260905014325 80 107 4.0 8.0 0.00 0.21 0.21 89 1014.0
20260905014238 80 111 4.0 8.0 0.00 0.21 0.21 89 1014.0
20260905014130 80 125 3.0 7.0 0.00 0.21 0.21 89 1013.9
20260905014041 80 111 4.0 7.0 0.00 0.21 0.21 89 1014.0
20260905013931 80 135 4.0 7.0 0.00 0.21 0.21 89 1014.0
20260905013824 81 128 4.0 7.0 0.00 0.21 0.21 89 1014.0
20260905013735 81 132 4.0 7.0 0.00 0.21 0.21 89 1014.0
20260905013629 81 136 4.0 7.0 0.00 0.21 0.21 89 1014.0
20260905013520 81 108 4.0 7.0 0.00 0.21 0.21 89 1013.9
20260905013433 81 129 4.0 7.0 0.00 0.21 0.21 89 1013.9
20260905013326 81 114 3.0 7.0 0.00 0.21 0.21 89 1013.9
20260905013236 81 106 4.0 7.0 0.00 0.21 0.21 89 1013.9
20260905013158 81 118 4.0 7.0 0.00 0.21 0.21 89 1013.9
20260905013030 81 125 4.0 7.0 0.00 0.21 0.21 89 1013.9
20260905012923 81 111 4.0 7.0 0.00 0.21 0.21 88 1014.0
20260905012835 81 126 3.0 7.0 0.00 0.21 0.21 88 1013.9
20260905012731 81 119 3.0 7.0 0.00 0.21 0.21 88 1014.0
20260905012643 81 117 4.0 7.0 0.00 0.21 0.21 88 1013.9
20260905012534 81 119 4.0 7.0 0.00 0.21 0.21 88 1014.0
20260905012427 81 126 4.0 7.0 0.00 0.21 0.21 88 1013.9
20260905012339 81 126 4.0 7.0 0.00 0.21 0.21 88 1014.0
20260905012231 81 121 3.0 7.0 0.00 0.21 0.21 88 1014.0
20260905012123 81 116 3.0 7.0 0.00 0.21 0.21 88 1014.0
20260905012036 81 95 3.0 7.0 0.00 0.21 0.21 88 1014.0
20260905011933 81 118 3.0 7.0 0.00 0.21 0.21 88 1014.0
20260905011845 81 109 3.0 7.0 0.00 0.21 0.21 88 1014.0
20260905011758 81 92 3.0 7.0 0.00 0.21 0.21 88 1014.0
20260905011659 81 128 3.0 7.0 0.00 0.21 0.21 88 1014.0
20260905011531 81 108 3.0 6.0 0.00 0.21 0.21 88 1014.0
20260905011424 81 103 3.0 6.0 0.00 0.21 0.21 87 1014.0
20260905011337 81 90 3.0 6.0 0.00 0.21 0.21 87 1013.9
20260905011228 81 81 2.0 6.0 0.00 0.21 0.21 87 1014.0
20260905011120 81 81 2.0 6.0 0.00 0.21 0.21 87 1013.9
20260905011037 81 81 2.0 6.0 0.00 0.21 0.21 87 1014.0
20260905010929 81 111 2.0 6.0 0.00 0.21 0.21 87 1014.0
20260905010840 81 111 2.0 6.0 0.00 0.21 0.21 87 1013.8
20260905010731 81 76 2.0 6.0 0.00 0.21 0.21 87 1013.9
20260905010624 81 109 3.0 6.0 0.00 0.21 0.21 87 1013.8
20260905010535 81 109 3.0 6.0 0.00 0.21 0.21 87 1013.8
20260905010428 82 83 2.0 6.0 0.00 0.21 0.21 87 1013.8
20260905010340 82 90 2.0 6.0 0.00 0.21 0.21 86 1013.7
20260905010234 82 90 2.0 6.0 0.00 0.21 0.21 86 1013.8
20260905010157 82 90 2.0 6.0 0.00 0.21 0.21 86 1013.8
20260905010027 82 86 3.0 6.0 0.00 0.21 0.21 86 1013.8
20260905005940 82 85 3.0 6.0 0.00 0.21 0.21 86 1013.9
20260905005831 82 68 3.0 6.0 0.00 0.21 0.21 86 1013.8
20260905005724 82 105 2.0 6.0 0.00 0.21 0.21 86 1013.8
20260905005636 82 79 2.0 4.0 0.00 0.21 0.21 86 1013.8
20260905005527 82 88 2.0 4.0 0.00 0.21 0.21 86 1013.8
20260905005424 82 88 2.0 4.0 0.00 0.21 0.21 86 1013.8
20260905005335 82 88 2.0 4.0 0.00 0.21 0.21 86 1013.7
20260905005139 82 88 3.0 4.0 0.00 0.21 0.21 86 1013.7
20260905005052 82 88 2.0 4.0 0.00 0.21 0.21 86 1013.7
20260905004923 82 88 1.0 4.0 0.00 0.21 0.21 85 1013.7
20260905004835 82 88 2.0 4.0 0.00 0.21 0.21 85 1013.7
20260905004726 82 88 1.0 4.0 0.00 0.21 0.21 86 1013.7
20260905004649 82 88 1.0 4.0 0.00 0.21 0.21 86 1013.7
20260905004540 82 88 1.0 4.0 0.00 0.21 0.21 85 1013.6
20260905004456 82 88 1.0 4.0 0.00 0.21 0.21 85 1013.6
20260905004347 82 88 1.0 4.0 0.00 0.21 0.21 85 1013.6
20260905004238 83 88 0.0 2.0 0.00 0.21 0.21 85 1013.6
20260905004129 83 88 0.0 0.0 0.00 0.21 0.21 85 1013.7
20260905004041 83 88 0.0 0.0 0.00 0.21 0.21 85 1013.7
20260905003932 83 88 0.0 0.0 0.00 0.21 0.21 85 1013.6
20260905003843 83 88 0.0 1.0 0.00 0.21 0.21 85 1013.7
20260905003734 83 88 0.0 1.0 0.00 0.21 0.21 85 1013.7
20260905003646 83 88 0.0 2.0 0.00 0.21 0.21 85 1013.6
20260905003559 83 88 0.0 2.0 0.00 0.21 0.21 84 1013.7
20260905003451 83 88 0.0 2.0 0.00 0.21 0.21 84 1013.7
20260905003326 83 88 0.0 2.0 0.00 0.21 0.21 84 1013.7
20260905003237 83 88 0.0 2.0 0.00 0.21 0.21 84 1013.7
20260905003158 83 88 0.0 2.0 0.00 0.21 0.21 84 1013.7
20260905003050 83 88 1.0 2.0 0.00 0.21 0.21 84 1013.7
20260905002921 83 88 1.0 2.0 0.00 0.21 0.21 83 1013.7
20260905002833 83 88 1.0 2.0 0.00 0.21 0.21 83 1013.7
20260905002745 83 88 1.0 2.0 0.00 0.21 0.21 83 1013.7
20260905002636 83 88 1.0 2.0 0.00 0.21 0.21 83 1013.7
20260905002547 83 88 1.0 2.0 0.00 0.21 0.21 83 1013.7
20260905002439 83 88 1.0 2.0 0.00 0.21 0.21 83 1013.7
20260905002332 84 88 2.0 2.0 0.00 0.21 0.21 83 1013.6
20260905002228 84 88 1.0 2.0 0.00 0.21 0.21 83 1013.7
20260905002141 84 88 1.0 2.0 0.00 0.21 0.21 84 1013.7
20260905002031 84 88 0.0 2.0 0.00 0.21 0.21 83 1013.6
20260905001924 84 88 0.0 3.0 0.00 0.21 0.21 84 1013.7
20260905001836 84 88 0.0 3.0 0.00 0.21 0.21 83 1013.6
20260905001728 84 88 0.0 3.0 0.00 0.21 0.21 84 1013.6
20260905001650 84 88 0.0 3.0 0.00 0.21 0.21 84 1013.6
20260905001522 84 88 1.0 3.0 0.00 0.21 0.21 83 1013.6
20260905001435 84 88 1.0 3.0 0.00 0.21 0.21 83 1013.5
20260905001331 84 88 1.0 3.0 0.00 0.21 0.21 83 1013.4
20260905001222 84 88 1.0 3.0 0.00 0.21 0.21 83 1013.5
20260905001133 84 88 1.0 3.0 0.00 0.21 0.21 83 1013.6
20260905001025 84 88 1.0 3.0 0.00 0.21 0.21 83 1013.6
20260905000936 85 88 1.0 3.0 0.00 0.21 0.21 83 1013.5
20260905000848 85 88 1.0 3.0 0.00 0.21 0.21 83 1013.5
20260905000801 85 88 1.0 3.0 0.00 0.21 0.21 83 1013.5
20260905000652 85 88 1.0 3.0 0.00 0.21 0.21 83 1013.5
20260905000523 85 88 2.0 3.0 0.00 0.21 0.21 82 1013.4
20260905000439 85 88 2.0 3.0 0.00 0.21 0.21 82 1013.4
20260905000333 85 88 2.0 3.0 0.00 0.21 0.21 82 1013.5
20260905000243 85 88 2.0 3.0 0.00 0.21 0.21 82 1013.5
20260905000144 85 88 1.0 3.0 0.00 0.21 0.21 82 1013.4
20260905000036 85 22 0.0 1.0 0.00 0.21 0.21 83 1013.4
20260904235927 85 22 0.0 0.0 0.00 0.21 0.21 82 1013.5
20260904235839 85 22 0.0 0.0 0.00 0.21 0.21 82 1013.5
20260904235731 86 22 0.0 0.0 0.00 0.21 0.21 82 1013.5
20260904235623 86 22 0.0 0.0 0.00 0.21 0.21 81 1013.5
20260904235539 86 22 0.0 0.0 0.00 0.21 0.21 81 1013.5
20260904235431 86 22 0.0 0.0 0.00 0.21 0.21 81 1013.5
20260904235322 86 22 0.0 0.0 0.00 0.21 0.21 81 1013.5
20260904235234 86 22 0.0 0.0 0.00 0.21 0.21 81 1013.5
20260904235146 86 22 0.0 0.0 0.00 0.21 0.21 81 1013.5
20260904235037 86 22 0.0 0.0 0.00 0.21 0.21 80 1013.5
20260904234930 86 22 0.0 0.0 0.00 0.21 0.21 80 1013.6
20260904234822 87 22 0.0 0.0 0.00 0.21 0.21 80 1013.6
20260904234734 87 22 0.0 0.0 0.00 0.21 0.21 80 1013.6
20260904234701 87 22 0.0 0.0 0.00 0.21 0.21 80 1013.6
20260904234552 87 309 0.0 0.0 0.00 0.21 0.21 80 1013.6
20260904234443 87 277 0.0 0.0 0.00 0.21 0.21 81 1013.6
20260904234355 87 263 0.0 0.0 0.00 0.21 0.21 81 1013.7
20260904234245 87 263 0.0 0.0 0.00 0.21 0.21 80 1013.6
20260904234137 87 263 0.0 0.0 0.00 0.21 0.21 80 1013.7
20260904234030 87 263 0.0 0.0 0.00 0.21 0.21 80 1013.7
20260904233923 87 262 0.0 0.0 0.00 0.21 0.21 79 1013.6
20260904233835 87 262 0.0 0.0 0.00 0.21 0.21 79 1013.7
20260904233724 87 262 0.0 0.0 0.00 0.21 0.21 78 1013.7
20260904233621 87 262 0.0 0.0 0.00 0.21 0.21 78 1013.8
20260904233533 88 262 0.0 0.0 0.00 0.21 0.21 78 1013.7
20260904233425 88 262 0.0 0.0 0.00 0.21 0.21 78 1013.7
20260904233338 88 262 0.0 0.0 0.00 0.21 0.21 78 1013.7
20260904233229 88 262 0.0 0.0 0.00 0.21 0.21 78 1013.7
20260904233151 88 262 0.0 0.0 0.00 0.21 0.21 78 1013.7
20260904233043 88 262 0.0 0.0 0.00 0.21 0.21 78 1013.6
20260904232935 88 262 0.0 0.0 0.00 0.21 0.21 77 1013.5
20260904232847 88 255 0.0 0.0 0.00 0.21 0.21 77 1013.6
20260904232722 88 255 0.0 0.0 0.00 0.21 0.21 76 1013.5
20260904232634 88 255 0.0 0.0 0.00 0.21 0.21 76 1013.6
20260904232525 89 255 0.0 1.0 0.00 0.21 0.21 76 1013.6
20260904232436 89 255 0.0 1.0 0.00 0.21 0.21 77 1013.5
20260904232329 89 255 0.0 1.0 0.00 0.21 0.21 77 1013.6
20260904232222 89 255 0.0 1.0 0.00 0.21 0.21 77 1013.5
20260904232134 89 255 0.0 1.0 0.00 0.21 0.21 77 1013.6
20260904232026 89 255 0.0 1.0 0.00 0.21 0.21 77 1013.4
20260904231922 89 255 0.0 1.0 0.00 0.21 0.21 76 1013.6
20260904231835 89 255 1.0 1.0 0.00 0.21 0.21 75 1013.5
20260904231728 89 255 1.0 1.0 0.00 0.21 0.21 75 1013.5
20260904231650 89 255 1.0 1.0 0.00 0.21 0.21 74 1013.5
20260904231542 89 255 0.0 1.0 0.00 0.21 0.21 74 1013.5
20260904231454 89 255 0.0 1.0 0.00 0.21 0.21 73 1013.6
20260904231325 89 255 0.0 1.0 0.00 0.21 0.21 74 1013.6
20260904231236 90 255 0.0 1.0 0.00 0.21 0.21 74 1013.6
20260904231128 90 255 0.0 1.0 0.00 0.21 0.21 74 1013.6
20260904231025 90 255 0.0 1.0 0.00 0.21 0.21 74 1013.5
20260904230937 90 255 0.0 1.0 0.00 0.21 0.21 74 1013.6
20260904230828 90 255 0.0 1.0 0.00 0.21 0.21 74 1013.5
20260904230720 90 255 0.0 1.0 0.00 0.21 0.21 74 1013.5
20260904230633 90 255 0.0 1.0 0.00 0.21 0.21 74 1013.5
20260904230526 90 255 0.0 1.0 0.00 0.21 0.21 74 1013.4
20260904230439 90 255 0.0 1.0 0.00 0.21 0.21 74 1013.5
20260904230330 90 255 0.0 1.0 0.00 0.21 0.21 74 1013.3
20260904230225 90 255 0.0 1.0 0.00 0.21 0.21 74 1013.3
20260904230148 90 255 0.0 1.0 0.00 0.21 0.21 74 1013.4
20260904230039 90 255 0.0 1.0 0.00 0.21 0.21 74 1013.3
20260904225932 90 255 0.0 1.0 0.00 0.21 0.21 74 1013.3
20260904225825 89 255 0.0 1.0 0.00 0.21 0.21 74 1013.4
20260904225737 89 255 0.0 1.0 0.00 0.21 0.21 74 1013.4
20260904225629 89 255 0.0 1.0 0.00 0.21 0.21 74 1013.4
20260904225521 89 255 0.0 1.0 0.00 0.21 0.21 74 1013.4
20260904225433 89 255 0.0 1.0 0.00 0.21 0.21 74 1013.4
20260904225350 89 255 0.0 1.0 0.00 0.21 0.21 74 1013.3
20260904225242 90 255 0.0 1.0 0.00 0.21 0.21 74 1013.3
20260904225133 90 255 0.0 1.0 0.00 0.21 0.21 74 1013.3
20260904225025 90 255 0.0 3.0 0.00 0.21 0.21 74 1013.3
20260904224937 90 255 0.0 3.0 0.00 0.21 0.21 73 1013.3
20260904224850 90 255 0.0 3.0 0.00 0.21 0.21 74 1013.3
20260904224802 90 255 0.0 3.0 0.00 0.21 0.21 74 1013.2
20260904224724 90 255 0.0 3.0 0.00 0.21 0.21 74 1013.3
20260904224555 90 255 0.0 3.0 0.00 0.21 0.21 73 1013.4
20260904224445 90 255 0.0 3.0 0.00 0.21 0.21 73 1013.3
20260904224336 90 254 1.0 3.0 0.00 0.21 0.21 73 1013.3
20260904224248 90 254 2.0 3.0 0.00 0.21 0.21 73 1013.3
20260904224138 90 236 1.0 3.0 0.00 0.21 0.21 72 1013.2
20260904224050 90 261 1.0 3.0 0.00 0.21 0.21 72 1013.3
20260904223922 90 261 1.0 3.0 0.00 0.21 0.21 72 1013.3
20260904223834 90 261 1.0 3.0 0.00 0.21 0.21 73 1013.2
20260904223726 90 261 1.0 3.0 0.00 0.21 0.21 72 1013.2
20260904223638 90 261 1.0 3.0 0.00 0.21 0.21 72 1013.1
20260904223531 90 261 0.0 3.0 0.00 0.21 0.21 73 1013.2
20260904223422 90 261 0.0 3.0 0.00 0.21 0.21 73 1013.2
20260904223334 90 261 0.0 3.0 0.00 0.21 0.21 73 1013.2
20260904223227 90 261 1.0 3.0 0.00 0.21 0.21 72 1013.3
20260904223148 90 261 1.0 3.0 0.00 0.21 0.21 72 1013.2
20260904223040 90 261 1.0 3.0 0.00 0.21 0.21 73 1013.2
20260904222953 90 261 1.0 3.0 0.00 0.21 0.21 72 1013.3
20260904222825 90 261 0.0 3.0 0.00 0.21 0.21 72 1013.2
20260904222737 90 261 0.0 3.0 0.00 0.21 0.21 73 1013.2
20260904222648 90 261 0.0 3.0 0.00 0.21 0.21 73 1013.2
20260904222541 89 261 1.0 3.0 0.00 0.21 0.21 74 1013.2
20260904222432 90 261 1.0 3.0 0.00 0.21 0.21 73 1013.2
20260904222324 89 261 1.0 2.0 0.00 0.21 0.21 74 1013.1
20260904222234 89 261 1.0 2.0 0.00 0.21 0.21 74 1013.0
20260904222130 89 261 1.0 2.0 0.00 0.21 0.21 73 1013.1
20260904222041 89 261 1.0 2.0 0.00 0.21 0.21 73 1013.1
20260904221953 89 261 1.0 2.0 0.00 0.21 0.21 73 1013.1
20260904221904 89 261 1.0 2.0 0.00 0.21 0.21 73 1013.1
20260904221817 89 261 1.0 3.0 0.00 0.21 0.21 73 1013.1
20260904221718 89 261 1.0 4.0 0.00 0.21 0.21 73 1013.0
20260904221525 89 261 1.0 4.0 0.00 0.21 0.21 73 1012.9
20260904221437 89 261 0.0 4.0 0.00 0.21 0.21 73 1012.9
20260904221350 89 261 0.0 4.0 0.00 0.21 0.21 73 1012.9
20260904221220 89 261 1.0 4.0 0.00 0.21 0.21 73 1012.9
20260904221136 89 261 1.0 4.0 0.00 0.21 0.21 72 1012.8
20260904221048 89 261 2.0 4.0 0.00 0.21 0.21 72 1012.8
20260904221001 89 261 2.0 4.0 0.00 0.21 0.21 72 1012.8
20260904220851 89 261 2.0 4.0 0.00 0.21 0.21 73 1012.8
20260904220803 89 232 0.0 3.0 0.00 0.21 0.21 73 1012.7
20260904220714 89 232 0.0 4.0 0.00 0.21 0.21 74 1012.7
20260904220606 89 232 0.0 4.0 0.00 0.21 0.21 73 1012.8
20260904220458 89 232 0.0 4.0 0.00 0.21 0.21 73 1012.8
20260904220329 89 232 1.0 4.0 0.00 0.21 0.21 73 1012.8
20260904220221 89 232 1.0 4.0 0.00 0.21 0.21 72 1012.8
20260904220142 89 232 1.0 4.0 0.00 0.21 0.21 72 1012.9
20260904220039 89 238 2.0 7.0 0.00 0.21 0.21 71 1012.8
20260904215930 89 246 2.0 7.0 0.00 0.21 0.21 71 1012.8
20260904215822 89 244 2.0 7.0 0.00 0.21 0.21 71 1012.8
20260904215734 89 246 2.0 7.0 0.00 0.21 0.21 71 1012.8
20260904215627 89 202 2.0 7.0 0.00 0.21 0.21 71 1012.8
20260904215539 89 247 3.0 7.0 0.00 0.21 0.21 71 1012.8
20260904215430 89 192 2.0 7.0 0.00 0.21 0.21 71 1012.8
20260904215341 89 240 2.0 7.0 0.00 0.21 0.21 72 1012.8
20260904215253 89 205 2.0 7.0 0.00 0.21 0.21 72 1012.8
20260904215128 89 248 1.0 4.0 0.00 0.21 0.21 72 1012.9
20260904215020 89 158 1.0 4.0 0.00 0.21 0.21 72 1012.9
20260904214933 89 200 1.0 4.0 0.00 0.21 0.21 72 1012.9
20260904214825 89 200 1.0 4.0 0.00 0.21 0.21 72 1012.9
20260904214737 89 200 2.0 4.0 0.00 0.21 0.21 72 1013.0
20260904214700 89 200 2.0 7.0 0.00 0.21 0.21 71 1013.0
20260904214531 89 117 2.0 7.0 0.00 0.21 0.21 71 1012.9
20260904214423 89 238 2.0 7.0 0.00 0.21 0.21 71 1012.9
20260904214320 89 241 2.0 7.0 0.00 0.21 0.21 70 1012.9
20260904214232 89 247 1.0 7.0 0.00 0.21 0.21 71 1013.0
20260904214144 89 249 2.0 7.0 0.00 0.21 0.21 71 1012.9
20260904214035 89 249 3.0 7.0 0.00 0.21 0.21 70 1012.9
20260904213926 89 244 3.0 7.0 0.00 0.21 0.21 70 1012.9
20260904213839 89 246 3.0 8.0 0.00 0.21 0.21 71 1013.0
20260904213730 89 239 2.0 8.0 0.00 0.21 0.21 71 1013.0
20260904213622 89 222 2.0 8.0 0.00 0.21 0.21 72 1013.0
20260904213535 89 240 1.0 8.0 0.00 0.21 0.21 72 1012.9
20260904213431 89 229 1.0 8.0 0.00 0.21 0.21 72 1012.9
20260904213342 89 229 2.0 8.0 0.00 0.21 0.21 71 1012.9
20260904213255 89 198 2.0 8.0 0.00 0.21 0.21 71 1012.9
20260904213217 89 250 3.0 8.0 0.00 0.21 0.21 71 1012.9
20260904213026 89 238 4.0 8.0 0.00 0.21 0.21 70 1013.0
20260904212939 89 216 3.0 8.0 0.00 0.21 0.21 70 1013.0
20260904212831 89 249 3.0 8.0 0.00 0.21 0.21 70 1013.0
20260904212722 89 244 3.0 8.0 0.00 0.21 0.21 70 1013.0
20260904212633 89 242 3.0 8.0 0.00 0.21 0.21 70 1013.0
20260904212527 89 246 2.0 5.0 0.00 0.21 0.21 71 1013.0
20260904212420 89 242 2.0 5.0 0.00 0.21 0.21 71 1013.0
20260904212333 89 250 2.0 5.0 0.00 0.21 0.21 70 1013.0
20260904212225 89 263 2.0 5.0 0.00 0.21 0.21 71 1012.9
20260904212138 89 237 2.0 5.0 0.00 0.21 0.21 71 1012.9
20260904212051 89 238 2.0 4.0 0.00 0.21 0.21 71 1012.9
20260904211941 89 236 2.0 5.0 0.00 0.21 0.21 71 1012.9
20260904211832 89 146 2.0 5.0 0.00 0.21 0.21 71 1012.8
20260904211724 89 209 2.0 7.0 0.00 0.21 0.21 71 1012.8
20260904211645 89 196 2.0 7.0 0.00 0.21 0.21 71 1012.9
20260904211521 89 136 2.0 7.0 0.00 0.21 0.21 71 1012.9
20260904211435 89 123 2.0 7.0 0.00 0.21 0.21 71 1012.9
20260904211327 88 238 2.0 7.0 0.00 0.21 0.21 72 1012.9
20260904211239 88 257 2.0 7.0 0.00 0.21 0.21 72 1012.9
20260904211130 88 238 3.0 7.0 0.00 0.21 0.21 71 1013.0
20260904211041 88 208 3.0 7.0 0.00 0.21 0.21 71 1012.9
20260904210952 88 241 3.0 7.0 0.00 0.21 0.21 72 1012.9
20260904210904 88 244 2.0 5.0 0.00 0.21 0.21 72 1013.0
20260904210734 88 259 2.0 5.0 0.00 0.21 0.21 72 1013.0
20260904210631 88 238 3.0 5.0 0.00 0.21 0.21 72 1013.0
20260904210543 88 248 3.0 5.0 0.00 0.21 0.21 72 1013.0
20260904210434 88 257 3.0 5.0 0.00 0.21 0.21 72 1013.0
20260904210326 88 242 2.0 5.0 0.00 0.21 0.21 72 1013.0
20260904210236 88 252 2.0 5.0 0.00 0.26 0.21 73 1013.1
20260904210157 88 269 2.0 5.0 0.00 0.26 0.21 72 1013.1
20260904210029 88 233 2.0 4.0 0.00 0.26 0.21 74 1013.1
20260904205942 88 248 1.0 4.0 0.00 0.26 0.21 74 1013.1
20260904205853 88 248 2.0 4.0 0.00 0.26 0.21 74 1013.1
20260904205744 87 231 3.0 4.0 0.00 0.26 0.21 73 1013.1
20260904205651 87 252 2.0 4.0 0.00 0.26 0.21 73 1013.2
20260904205526 87 192 2.0 4.0 0.00 0.26 0.21 73 1013.2
20260904205437 87 230 3.0 4.0 0.00 0.26 0.21 73 1013.2
20260904205328 87 269 2.0 4.0 0.00 0.26 0.21 74 1013.2
20260904205221 87 151 2.0 4.0 0.00 0.26 0.21 74 1013.2
20260904205132 87 224 2.0 4.0 0.00 0.26 0.21 73 1013.3
20260904205024 87 252 1.0 5.0 0.00 0.26 0.21 74 1013.3
20260904204935 87 154 1.0 5.0 0.00 0.26 0.21 73 1013.3
20260904204827 87 143 1.0 5.0 0.00 0.26 0.21 73 1013.3
20260904204724 87 188 1.0 5.0 0.00 0.26 0.21 73 1013.3
20260904204645 87 146 1.0 5.0 0.00 0.26 0.21 72 1013.3
20260904204537 87 144 2.0 5.0 0.00 0.26 0.21 72 1013.3
20260904204430 87 143 2.0 6.0 0.00 0.26 0.21 73 1013.3
20260904204322 87 160 2.0 6.0 0.00 0.26 0.21 73 1013.3
20260904204233 87 211 2.0 6.0 0.00 0.26 0.21 72 1013.4
20260904204122 87 142 2.0 6.0 0.00 0.26 0.21 72 1013.4
20260904204033 87 143 2.0 6.0 0.00 0.26 0.21 73 1013.4
20260904203928 87 188 1.0 6.0 0.00 0.26 0.21 73 1013.4
20260904203821 87 128 2.0 6.0 0.00 0.26 0.21 73 1013.4
20260904203733 87 237 3.0 6.0 0.00 0.26 0.21 73 1013.5
20260904203625 87 188 3.0 5.0 0.00 0.26 0.21 73 1013.5
20260904203537 87 151 2.0 5.0 0.00 0.26 0.21 73 1013.6
20260904203430 87 230 1.0 4.0 0.00 0.26 0.21 73 1013.6
20260904203321 87 247 1.0 4.0 0.00 0.26 0.21 74 1013.6
20260904203232 87 247 2.0 5.0 0.00 0.26 0.21 74 1013.7
20260904203155 87 247 2.0 8.0 0.00 0.26 0.21 74 1013.7
20260904203030 87 159 2.0 8.0 0.00 0.26 0.21 74 1013.7
20260904202922 86 211 1.0 8.0 0.00 0.26 0.21 75 1013.8
20260904202835 86 147 0.0 8.0 0.00 0.26 0.21 75 1013.7
20260904202726 86 147 1.0 8.0 0.00 0.26 0.21 75 1013.8
20260904202639 86 147 1.0 8.0 0.00 0.26 0.21 75 1013.7
20260904202531 86 147 2.0 8.0 0.00 0.26 0.21 75 1013.8
20260904202441 86 155 4.0 8.0 0.00 0.26 0.21 75 1013.8
20260904202333 86 178 3.0 9.0 0.00 0.26 0.21 76 1013.8
20260904202244 86 242 2.0 9.0 0.00 0.26 0.21 77 1013.8
20260904202159 85 247 2.0 9.0 0.00 0.26 0.21 78 1013.8
20260904202030 85 146 1.0 9.0 0.00 0.26 0.21 79 1013.8
20260904201922 85 239 1.0 9.0 0.00 0.26 0.21 79 1013.8
20260904201833 85 239 2.0 9.0 0.00 0.26 0.21 78 1013.9
20260904201726 85 160 2.0 9.0 0.00 0.26 0.21 78 1013.8
20260904201647 85 157 3.0 9.0 0.00 0.26 0.21 79 1013.8
20260904201538 85 168 3.0 9.0 0.00 0.26 0.21 79 1013.7
20260904201429 85 138 3.0 7.0 0.00 0.26 0.21 79 1013.8
20260904201324 84 209 3.0 7.0 0.00 0.26 0.21 79 1013.8
20260904201235 84 160 3.0 7.0 0.00 0.26 0.21 79 1013.9
20260904201147 84 153 2.0 7.0 0.00 0.26 0.21 80 1013.8
20260904201038 84 247 2.0 7.0 0.00 0.26 0.21 80 1013.9
20260904200950 84 163 4.0 7.0 0.00 0.26 0.21 80 1013.8
20260904200821 84 146 3.0 8.0 0.00 0.26 0.21 80 1013.9
20260904200732 84 138 3.0 8.0 0.00 0.26 0.21 81 1013.9
20260904200625 84 148 2.0 8.0 0.00 0.26 0.21 81 1014.0
20260904200537 84 144 2.0 8.0 0.00 0.26 0.21 81 1014.0
20260904200449 83 148 2.0 8.0 0.00 0.26 0.21 81 1014.0
20260904200340 83 197 2.0 8.0 0.00 0.26 0.21 82 1014.0
20260904200300 83 150 3.0 8.0 0.00 0.26 0.21 81 1014.1
20260904200145 83 155 3.0 8.0 0.00 0.26 0.21 80 1014.1
20260904200035 83 161 4.0 8.0 0.00 0.26 0.21 81 1014.1
20260904195947 83 155 3.0 8.0 0.00 0.26 0.21 81 1014.1
20260904195838 83 169 2.0 8.0 0.00 0.26 0.21 82 1014.0
20260904195730 83 261 2.0 7.0 0.00 0.26 0.21 82 1014.0
20260904195621 82 175 3.0 7.0 0.00 0.26 0.21 82 1014.1
20260904195533 82 181 3.0 7.0 0.00 0.26 0.21 82 1014.0
20260904195425 82 154 2.0 7.0 0.00 0.26 0.21 83 1014.1
20260904195337 82 140 2.0 7.0 0.00 0.26 0.21 83 1014.0
20260904195232 82 157 1.0 7.0 0.00 0.26 0.21 84 1014.0
20260904195145 82 157 1.0 7.0 0.00 0.26 0.21 84 1013.9
20260904195057 82 157 2.0 7.0 0.00 0.26 0.21 84 1013.9
20260904195009 82 157 3.0 7.0 0.00 0.26 0.21 83 1013.9
20260904194920 82 147 3.0 7.0 0.00 0.26 0.21 83 1013.9
20260904194811 82 153 1.0 5.0 0.00 0.26 0.21 83 1014.1
20260904194712 82 149 0.0 8.0 0.00 0.26 0.21 83 1014.1
20260904194523 81 149 0.0 8.0 0.00 0.26 0.21 83 1014.0
20260904194435 81 149 1.0 8.0 0.00 0.26 0.21 83 1014.0
20260904194328 81 149 2.0 8.0 0.00 0.26 0.21 83 1014.1
20260904194223 81 149 3.0 8.0 0.00 0.26 0.21 82 1014.0
20260904194136 81 146 3.0 8.0 0.00 0.26 0.21 82 1014.1
20260904194048 81 176 3.0 8.0 0.00 0.26 0.21 82 1014.0
20260904193940 81 179 4.0 8.0 0.00 0.26 0.21 82 1014.1
20260904193830 81 143 4.0 8.0 0.00 0.26 0.21 82 1014.1
20260904193720 81 148 3.0 7.0 0.00 0.26 0.21 83 1014.1
20260904193633 81 150 4.0 7.0 0.00 0.26 0.21 83 1014.1
20260904193524 81 155 3.0 8.0 0.00 0.26 0.21 82 1014.1
20260904193437 81 133 3.0 8.0 0.00 0.26 0.21 82 1014.2
20260904193348 81 124 3.0 9.0 0.00 0.26 0.21 82 1014.3
20260904193304 81 102 3.0 9.0 0.00 0.26 0.21 82 1014.3
20260904193224 81 101 3.0 9.0 0.00 0.26 0.21 82 1014.2
20260904193054 81 142 3.0 10.0 0.00 0.26 0.21 82 1014.2
20260904192946 81 142 3.0 10.0 0.00 0.26 0.21 82 1014.0
20260904192858 81 171 4.0 10.0 0.00 0.26 0.21 81 1014.0
20260904192730 81 173 5.0 10.0 0.00 0.26 0.21 81 1013.9
20260904192621 81 150 6.0 10.0 0.00 0.26 0.21 82 1013.9
20260904192533 81 134 8.0 11.0 0.00 0.26 0.21 82 1013.9
20260904192424 81 142 7.0 11.0 0.00 0.26 0.21 82 1013.9
20260904192336 81 115 8.0 11.0 0.00 0.26 0.21 82 1014.0
20260904192232 81 126 7.0 11.0 0.00 0.26 0.21 82 1013.9
20260904192124 81 122 6.0 11.0 0.00 0.26 0.21 82 1014.0
20260904192035 81 135 7.0 11.0 0.00 0.26 0.21 82 1014.0
20260904191927 81 149 7.0 12.0 0.00 0.26 0.21 82 1014.1
20260904191838 81 123 7.0 12.0 0.00 0.26 0.21 83 1014.0
20260904191730 81 121 8.0 12.0 0.00 0.26 0.21 82 1014.0
20260904191653 81 103 8.0 12.0 0.00 0.26 0.21 82 1014.0
20260904191524 81 130 7.0 12.0 0.00 0.26 0.21 82 1014.1
20260904191420 81 134 7.0 12.0 0.00 0.26 0.21 82 1014.0
20260904191333 81 118 7.0 14.0 0.00 0.26 0.21 83 1014.0
20260904191224 81 119 8.0 14.0 0.00 0.26 0.21 82 1014.0
20260904191136 81 105 8.0 14.0 0.00 0.26 0.21 82 1014.1
20260904191047 81 115 7.0 14.0 0.00 0.26 0.21 84 1014.0
20260904190937 81 105 5.0 14.0 0.00 0.26 0.21 84 1014.0
20260904190829 80 113 4.0 14.0 0.00 0.26 0.21 83 1014.0
20260904190721 80 106 6.0 14.0 0.00 0.26 0.21 84 1014.0
20260904190633 80 136 8.0 14.0 0.00 0.26 0.21 83 1013.9
20260904190530 80 145 9.0 14.0 0.00 0.26 0.21 83 1013.9
20260904190442 80 150 8.0 12.0 0.00 0.26 0.21 83 1014.0
20260904190355 80 128 7.0 11.0 0.00 0.26 0.21 84 1013.9
20260904190246 80 121 7.0 11.0 0.00 0.26 0.21 84 1013.9
20260904190208 80 132 7.0 11.0 0.00 0.26 0.21 84 1014.0
20260904190037 80 128 5.0 11.0 0.00 0.26 0.21 85 1014.0
20260904185950 80 115 5.0 11.0 0.00 0.26 0.21 84 1014.0
20260904185842 80 238 7.0 11.0 0.00 0.26 0.21 85 1014.0
20260904185732 80 74 7.0 11.0 0.00 0.26 0.21 85 1014.0
20260904185624 80 111 8.0 11.0 0.00 0.26 0.21 85 1014.1
20260904185520 80 134 8.0 11.0 0.00 0.26 0.21 85 1013.9
20260904185433 80 130 7.0 11.0 0.00 0.26 0.21 86 1014.0
20260904185325 80 115 7.0 10.0 0.00 0.26 0.21 85 1014.1
20260904185236 80 155 7.0 10.0 0.00 0.26 0.21 86 1014.2
20260904185128 79 142 6.0 10.0 0.00 0.26 0.21 87 1014.1
20260904185040 79 116 4.0 10.0 0.00 0.26 0.21 86 1014.1
20260904184930 79 140 5.0 14.0 0.00 0.26 0.21 86 1014.1
20260904184823 79 158 6.0 14.0 0.00 0.26 0.21 86 1014.1
20260904184735 79 123 5.0 14.0 0.00 0.26 0.21 87 1014.0
20260904184700 79 134 3.0 14.0 0.00 0.26 0.21 86 1014.0
20260904184530 79 153 4.0 14.0 0.00 0.26 0.21 87 1013.9
20260904184421 79 200 4.0 14.0 0.00 0.26 0.21 87 1013.9
20260904184333 79 135 3.0 14.0 0.00 0.26 0.21 87 1013.9
20260904184226 79 157 4.0 14.0 0.00 0.26 0.21 88 1013.8
20260904184139 79 226 4.0 13.0 0.00 0.26 0.21 88 1013.9
20260904184030 79 192 4.0 10.0 0.00 0.26 0.21 89 1013.9
20260904183922 79 232 3.0 10.0 0.00 0.26 0.21 90 1013.8
20260904183838 79 152 3.0 9.0 0.00 0.26 0.21 90 1013.9
20260904183748 78 225 3.0 10.0 0.00 0.26 0.21 90 1013.7
20260904183639 78 229 3.0 10.0 0.00 0.26 0.21 91 1013.7
20260904183532 78 168 2.0 10.0 0.00 0.26 0.21 92 1013.6
20260904183424 78 128 2.0 10.0 0.00 0.26 0.21 92 1013.5
20260904183339 77 137 2.0 10.0 0.00 0.26 0.21 92 1013.6
20260904183230 77 140 3.0 10.0 0.00 0.26 0.21 91 1013.5
20260904183152 77 183 3.0 10.0 0.00 0.26 0.21 92 1013.5
20260904183022 77 161 5.0 10.0 0.00 0.26 0.21 91 1013.5
20260904182937 77 148 5.0 10.0 0.00 0.26 0.21 91 1013.4
20260904182828 76 150 5.0 7.0 0.00 0.26 0.21 92 1013.4
20260904182720 76 160 4.0 7.0 0.00 0.26 0.21 92 1013.7
20260904182632 76 174 4.0 7.0 0.00 0.26 0.21 92 1013.7
20260904182525 76 211 4.0 7.0 0.00 0.26 0.21 92 1013.7
20260904182436 76 157 4.0 7.0 0.00 0.26 0.21 92 1013.7
20260904182347 76 219 3.0 9.0 0.00 0.26 0.21 92 1013.7
20260904182259 76 274 2.0 9.0 0.00 0.26 0.21 93 1013.9
20260904182130 76 194 2.0 9.0 0.00 0.26 0.21 93 1013.8
20260904182046 76 157 3.0 9.0 0.00 0.26 0.21 93 1013.9
20260904181957 76 296 3.0 9.0 0.00 0.26 0.21 93 1013.9
20260904181907 76 215 3.0 9.0 0.00 0.26 0.21 93 1013.9
20260904181757 76 153 3.0 9.0 0.00 0.26 0.21 93 1013.9
20260904181719 75 192 3.0 9.0 0.00 0.26 0.21 93 1013.9
20260904181529 75 192 5.0 10.0 0.00 0.26 0.21 93 1013.8
20260904181441 75 163 4.0 10.0 0.00 0.26 0.21 93 1013.8
20260904181353 75 198 5.0 18.0 0.00 0.26 0.21 93 1013.8
20260904181224 75 153 5.0 18.0 0.00 0.26 0.21 94 1013.8
20260904181137 75 134 5.0 18.0 0.00 0.26 0.21 94 1013.8
20260904181032 75 202 5.0 18.0 0.00 0.26 0.21 94 1013.9
20260904180925 75 147 5.0 18.0 0.01 0.26 0.21 94 1014.0
20260904180835 75 144 5.0 18.0 0.01 0.26 0.21 94 1013.8
20260904180727 75 146 5.0 18.0 0.01 0.26 0.21 94 1013.9
20260904180639 75 166 6.0 18.0 0.01 0.26 0.21 94 1013.8
20260904180531 75 205 6.0 18.0 0.01 0.26 0.21 94 1013.8
20260904180423 74 177 5.0 9.0 0.02 0.26 0.21 95 1013.9
20260904180335 74 152 5.0 9.0 0.02 0.26 0.21 95 1014.0
20260904180245 74 162 4.0 9.0 0.02 0.26 0.21 95 1014.2
20260904180212 74 182 4.0 9.0 0.02 0.26 0.21 95 1014.2
20260904180022 74 173 4.0 9.0 0.02 0.26 0.21 95 1014.6
20260904175934 74 156 3.0 9.0 0.02 0.26 0.21 95 1014.7
20260904175826 74 155 4.0 9.0 0.02 0.26 0.21 95 1014.7
20260904175738 74 161 4.0 9.0 0.02 0.26 0.21 95 1014.8
20260904175630 74 160 4.0 9.0 0.02 0.26 0.21 95 1014.9
20260904175522 74 161 3.0 8.0 0.02 0.26 0.21 95 1014.9
20260904175435 74 153 4.0 8.0 0.02 0.26 0.21 95 1015.0
20260904175333 74 140 4.0 8.0 0.02 0.26 0.21 95 1015.1
20260904175223 73 153 3.0 8.0 0.03 0.26 0.21 95 1015.1
20260904175135 73 165 3.0 8.0 0.03 0.26 0.21 95 1015.3
20260904175028 73 150 3.0 8.0 0.03 0.26 0.21 95 1015.3
20260904174921 73 153 3.0 8.0 0.03 0.26 0.21 95 1015.3
20260904174833 73 152 2.0 8.0 0.03 0.26 0.21 95 1015.3
20260904174725 73 126 2.0 8.0 0.03 0.26 0.21 95 1015.2
20260904174648 73 157 2.0 8.0 0.04 0.26 0.21 95 1015.1
20260904174523 73 136 3.0 8.0 0.05 0.26 0.21 95 1015.0
20260904174436 73 161 4.0 8.0 0.06 0.26 0.21 95 1015.0
20260904174328 73 166 4.0 8.0 0.08 0.26 0.21 95 1014.9
20260904174221 73 151 4.0 8.0 0.09 0.26 0.21 95 1015.0
20260904174132 73 156 4.0 11.0 0.11 0.26 0.21 95 1015.2
20260904174023 73 156 4.0 11.0 0.13 0.26 0.21 95 1015.3
20260904173936 73 157 3.0 11.0 0.14 0.26 0.21 95 1015.4
20260904173827 73 156 3.0 11.0 0.15 0.26 0.21 95 1015.2
20260904173724 73 198 2.0 11.0 0.16 0.26 0.21 95 1015.4
20260904173636 73 185 3.0 11.0 0.17 0.26 0.21 95 1015.4
20260904173549 73 197 4.0 11.0 0.18 0.26 0.21 95 1015.4
20260904173439 73 159 4.0 11.0 0.19 0.26 0.21 95 1015.3
20260904173333 72 154 4.0 11.0 0.19 0.26 0.21 95 1015.2
20260904173224 72 171 5.0 10.0 0.20 0.26 0.21 95 1015.3
20260904173146 72 191 5.0 10.0 0.20 0.26 0.21 95 1015.3
20260904173036 72 154 6.0 10.0 0.21 0.26 0.21 95 1015.4
20260904172929 72 150 6.0 10.0 0.21 0.26 0.21 95 1015.4
20260904172825 72 151 5.0 11.0 0.21 0.26 0.21 94 1015.4
20260904172738 72 144 5.0 11.0 0.21 0.26 0.21 94 1015.4
20260904172631 72 185 4.0 11.0 0.21 0.26 0.21 94 1015.4
20260904172543 72 156 4.0 11.0 0.21 0.26 0.21 94 1015.6
20260904172456 72 141 6.0 11.0 0.21 0.26 0.21 94 1015.7
20260904172345 72 126 6.0 11.0 0.21 0.26 0.21 94 1015.8
20260904172237 72 150 5.0 11.0 0.21 0.26 0.21 94 1015.9
20260904172129 72 153 5.0 11.0 0.21 0.26 0.21 94 1016.0
20260904172041 72 153 5.0 11.0 0.21 0.26 0.21 94 1016.0
20260904171932 72 154 5.0 11.0 0.21 0.26 0.21 94 1016.1
20260904171828 72 148 4.0 11.0 0.21 0.26 0.21 94 1016.1
20260904171740 72 181 5.0 11.0 0.21 0.26 0.21 94 1016.1
20260904171703 72 146 5.0 11.0 0.21 0.26 0.21 94 1016.1
20260904171424 72 142 5.0 11.0 0.21 0.26 0.21 94 1016.2
20260904171336 72 141 6.0 11.0 0.21 0.26 0.21 94 1016.3
20260904171248 72 178 6.0 9.0 0.21 0.26 0.21 94 1016.2
20260904171121 72 137 6.0 9.0 0.21 0.26 0.21 94 1016.3
20260904171033 72 134 6.0 9.0 0.21 0.26 0.21 94 1016.4
20260904170925 72 144 4.0 8.0 0.20 0.25 0.20 93 1016.6
20260904170841 72 161 3.0 8.0 0.20 0.25 0.20 93 1016.8
20260904170731 72 155 2.0 5.0 0.20 0.25 0.20 93 1016.9
20260904170643 72 159 1.0 6.0 0.20 0.25 0.20 93 1017.0
20260904170554 72 159 1.0 6.0 0.19 0.24 0.19 93 1017.2
20260904170445 72 152 1.0 6.0 0.19 0.24 0.19 93 1017.3
20260904170359 72 152 2.0 7.0 0.19 0.24 0.19 93 1017.3
20260904170308 72 187 1.0 7.0 0.19 0.24 0.19 93 1017.4
20260904170209 72 148 1.0 7.0 0.19 0.24 0.19 93 1017.7
20260904170038 73 171 2.0 7.0 0.19 0.24 0.19 93 1017.7
20260904165930 73 180 3.0 7.0 0.19 0.24 0.19 92 1017.7
20260904165822 73 167 3.0 7.0 0.19 0.24 0.19 92 1017.7
20260904165738 73 156 3.0 7.0 0.19 0.24 0.19 93 1017.6
20260904165631 73 206 3.0 7.0 0.19 0.24 0.19 92 1017.6
20260904165523 73 168 3.0 6.0 0.19 0.24 0.19 92 1017.7
20260904165436 73 180 2.0 5.0 0.19 0.24 0.19 92 1017.7
20260904165348 73 147 1.0 5.0 0.18 0.23 0.18 92 1017.9
20260904165239 73 144 2.0 5.0 0.18 0.23 0.18 92 1017.9
20260904165130 73 148 1.0 5.0 0.18 0.23 0.18 92 1018.0
20260904165042 73 190 1.0 5.0 0.18 0.23 0.18 91 1018.1
20260904164934 73 161 2.0 7.0 0.18 0.23 0.18 91 1018.1
20260904164830 74 153 2.0 7.0 0.18 0.23 0.18 91 1018.2
20260904164721 74 166 2.0 7.0 0.17 0.22 0.17 90 1018.1
20260904164642 74 190 2.0 7.0 0.17 0.22 0.17 90 1018.2
20260904164534 74 201 2.0 7.0 0.15 0.20 0.15 90 1018.1
20260904164445 74 155 1.0 7.0 0.14 0.19 0.15 90 1018.1
20260904164357 74 163 1.0 7.0 0.13 0.18 0.13 89 1018.2
20260904164228 75 181 3.0 7.0 0.11 0.16 0.11 88 1018.3
20260904164140 75 166 4.0 7.0 0.09 0.14 0.10 88 1018.4
20260904164032 75 132 3.0 9.0 0.08 0.13 0.08 88 1018.6
20260904163927 75 88 2.0 9.0 0.06 0.11 0.07 88 1019.0
20260904163839 75 22 1.0 11.0 0.06 0.11 0.06 87 1019.1
20260904163732 75 355 1.0 15.0 0.05 0.10 0.05 87 1019.2
20260904163644 75 355 2.0 15.0 0.04 0.09 0.04 87 1019.1
20260904163556 76 22 3.0 17.0 0.03 0.08 0.03 86 1019.1
20260904163446 76 50 4.0 19.0 0.02 0.07 0.02 86 1019.0
20260904163358 76 29 4.0 21.0 0.02 0.07 0.02 85 1018.9
20260904163226 77 9 5.0 21.0 0.01 0.06 0.01 85 1019.0
20260904163149 77 9 7.0 21.0 0.01 0.06 0.01 84 1019.0
20260904163021 77 9 9.0 21.0 0.00 0.05 0.00 83 1019.2
20260904162932 77 29 10.0 21.0 0.00 0.05 0.00 82 1019.3
20260904162848 78 340 11.0 21.0 0.00 0.05 0.00 81 1019.3
20260904162800 78 325 13.0 21.0 0.00 0.05 0.00 81 1019.2
20260904162632 78 13 12.0 21.0 0.00 0.05 0.00 80 1019.2
20260904162523 79 329 10.0 21.0 0.00 0.05 0.00 80 1019.2
20260904162435 79 321 8.0 14.0 0.00 0.05 0.00 80 1019.2
20260904162347 79 355 8.0 14.0 0.00 0.05 0.00 80 1018.9
20260904162237 79 14 7.0 14.0 0.00 0.05 0.00 80 1018.9
20260904162128 79 302 8.0 12.0 0.00 0.05 0.00 80 1018.9
20260904162021 79 13 6.0 12.0 0.00 0.05 0.00 80 1018.7
20260904161936 79 323 5.0 12.0 0.00 0.05 0.00 80 1018.0
20260904161847 79 351 5.0 12.0 0.00 0.05 0.00 79 1017.5
20260904161759 79 93 7.0 12.0 0.00 0.05 0.00 80 1017.5
20260904161721 79 136 7.0 15.0 0.00 0.05 0.00 79 1017.2
20260904161531 79 120 8.0 15.0 0.00 0.05 0.00 79 1017.0
20260904161443 79 115 7.0 15.0 0.00 0.05 0.00 80 1017.0
20260904161334 79 103 7.0 15.0 0.00 0.05 0.00 80 1017.1
20260904161226 79 124 9.0 15.0 0.00 0.05 0.00 79 1017.1
20260904161139 79 134 9.0 15.0 0.00 0.05 0.00 79 1017.1
20260904161052 79 124 11.0 15.0 0.00 0.05 0.00 79 1017.0
20260904160943 79 138 10.0 15.0 0.00 0.05 0.00 79 1017.0
20260904160859 79 126 8.0 15.0 0.00 0.05 0.00 79 1017.0
20260904160729 79 111 8.0 15.0 0.00 0.05 0.00 79 1017.0
20260904160622 79 129 8.0 15.0 0.00 0.05 0.00 79 1017.0
20260904160535 79 91 8.0 15.0 0.00 0.05 0.00 80 1017.0
20260904160426 79 148 8.0 14.0 0.00 0.05 0.00 79 1016.9
20260904160338 79 150 6.0 13.0 0.00 0.05 0.00 79 1016.9
20260904160248 79 155 7.0 13.0 0.00 0.05 0.00 79 1016.9
20260904160210 79 160 9.0 13.0 0.00 0.05 0.00 80 1016.9
20260904160040 79 131 8.0 13.0 0.00 0.05 0.00 81 1016.9
20260904155935 79 134 7.0 14.0 0.00 0.05 0.00 82 1016.9
20260904155827 79 121 6.0 14.0 0.00 0.05 0.00 82 1017.0
20260904155739 79 107 7.0 14.0 0.00 0.05 0.00 81 1016.9
20260904155631 79 111 8.0 14.0 0.00 0.05 0.00 80 1017.0
20260904155523 79 85 9.0 17.0 0.00 0.05 0.00 79 1017.1
20260904155436 79 120 9.0 17.0 0.00 0.05 0.00 79 1017.1
20260904155348 79 113 9.0 17.0 0.00 0.05 0.00 79 1017.1
20260904155259 79 103 10.0 17.0 0.00 0.05 0.00 79 1017.0
20260904155131 79 125 9.0 17.0 0.00 0.05 0.00 80 1017.0
20260904155027 79 119 9.0 17.0 0.00 0.05 0.00 80 1017.0
20260904154939 79 117 9.0 17.0 0.00 0.05 0.00 80 1017.0
20260904154832 79 113 10.0 17.0 0.00 0.05 0.00 79 1017.1
20260904154725 79 126 12.0 17.0 0.00 0.05 0.00 78 1017.1
20260904154647 79 116 11.0 15.0 0.00 0.05 0.00 78 1017.2